M I D A S
Marine Information and Data Acquisition System
Tripno 877 of the Zeeleeuw from 2005-04-05 07:01:00 to 2005-04-05 10:52:00
Back to CruiseResearch ActivitiesStationsMapUnderway DataData graphs

EquipmentUnitsComment
TimeDGPSUTC
LatitudeDGPSDM.mWGS84
LongitudeDGPSDM.mWGS84
TemperatureSBE03/SBE38deg celciusITS90
ConductivitySBE21S/mITS90
SalinitySBE21 Practical Salinity Units
ChlorophylAChelsea fluorimeterg/lCalibrated in Aceton
Missing or incorrect values are displayed as -999
Sea surface data collected by the RV Zeeleeuw from 2005-04-05 07:01:10 to 2005-04-05 10:52:35
                                                                                    Next 1000 lines
Time Latitude Longitude Temperature Conductivity Salinity ChlorophylA
2005-04-05 07:01:21 51°13.597 2°56.09 15.812 0.017441 0.097331 -0.848668
2005-04-05 07:01:25 51°13.598 2°56.085 15.7491 0.017441 0.097334 -0.848668
2005-04-05 07:01:31 51°13.6 2°56.079 15.7542 0.017441 0.097334 -0.848668
2005-04-05 07:01:36 51°13.602 2°56.073 15.8029 0.017441 0.097335 -0.848668
2005-04-05 07:01:41 51°13.604 2°56.067 15.8223 0.017441 0.097338 -0.848668
2005-04-05 07:01:45 51°13.606 2°56.061 15.8649 0.017441 0.097341 -0.814958
2005-04-05 07:01:51 51°13.608 2°56.052 15.8731 0.017441 0.097344 -0.882377
2005-04-05 07:01:55 51°13.61 2°56.046 15.8504 0.017441 0.097344 -0.848668
2005-04-05 07:02:01 51°13.613 2°56.038 15.8435 0.017441 0.097344 -0.848668
2005-04-05 07:02:06 51°13.616 2°56.03 15.8613 0.017441 0.097345 -0.848668
2005-04-05 07:02:11 51°13.618 2°56.022 15.8582 0.017441 0.09735 -0.848668
2005-04-05 07:02:16 51°13.621 2°56.013 15.8354 0.017441 0.09735 -0.848668
2005-04-05 07:02:21 51°13.623 2°56.006 15.8357 0.017441 0.097353 -0.848668
2005-04-05 07:02:26 51°13.626 2°55.997 15.835 0.017441 0.097354 -0.848668
2005-04-05 07:02:31 51°13.63 2°55.987 15.8567 0.017441 0.097354 -0.848668
2005-04-05 07:02:36 51°13.632 2°55.979 15.8916 0.017441 0.097355 -0.848668
2005-04-05 07:02:41 51°13.636 2°55.969 15.891 0.017441 0.097357 -0.882377
2005-04-05 07:02:45 51°13.639 2°55.961 15.9105 0.017441 0.097358 -0.814958
2005-04-05 07:02:51 51°13.643 2°55.95 15.9072 0.017441 0.097361 -0.848668
2005-04-05 07:02:55 51°13.645 2°55.943 15.9089 0.017441 0.097361 -0.848668
2005-04-05 07:03:01 51°13.649 2°55.932 15.9212 0.017441 0.097361 -0.848668
2005-04-05 07:03:05 51°13.652 2°55.923 15.9134 0.017441 0.097365 -0.848668
2005-04-05 07:03:11 51°13.655 2°55.912 15.9171 0.017441 0.097364 -0.848668
2005-04-05 07:03:15 51°13.658 2°55.904 15.9117 0.017441 0.097367 -0.848668
2005-04-05 07:03:21 51°13.661 2°55.892 15.9098 0.017441 0.097367 -0.848668
2005-04-05 07:03:26 51°13.664 2°55.882 15.9149 0.017441 0.09737 -0.882377
2005-04-05 07:03:31 51°13.666 2°55.872 15.9022 0.017441 0.09737 -0.882377
2005-04-05 07:03:35 51°13.667 2°55.869 15.9017 0.017441 0.097372 -0.882377
2005-04-05 07:03:41 51°13.67 2°55.853 15.894 0.017441 0.097371 -0.882377
2005-04-05 07:03:45 51°13.672 2°55.844 15.8908 0.017441 0.097372 -0.882377
2005-04-05 07:03:51 51°13.674 2°55.832 15.8889 0.017441 0.097374 -0.848668
2005-04-05 07:03:55 51°13.675 2°55.824 15.8893 0.017441 0.097375 -0.882377
2005-04-05 07:04:01 51°13.677 2°55.814 15.8873 0.017441 0.097375 -0.882377
2005-04-05 07:04:06 51°13.678 2°55.804 15.921 0.017441 0.097377 -0.848668
2005-04-05 07:04:11 51°13.679 2°55.794 15.9206 0.017441 0.097378 -0.882377
2005-04-05 07:04:16 51°13.68 2°55.785 15.914 0.017441 0.097381 -0.882377
2005-04-05 07:04:21 51°13.681 2°55.777 15.9501 0.017441 0.097381 -0.848668
2005-04-05 07:04:25 51°13.681 2°55.77 15.89 0.017441 0.097384 -0.848668
2005-04-05 07:04:31 51°13.682 2°55.762 15.942 0.017441 0.097384 -0.848668
2005-04-05 07:04:35 51°13.682 2°55.758 15.9666 0.017441 0.097382 -0.848668
2005-04-05 07:04:40 51°13.682 2°55.754 15.9969 0.017441 0.097384 -0.882377
2005-04-05 07:04:45 51°13.683 2°55.752 16.0016 0.017441 0.097385 -0.814958
2005-04-05 07:04:51 51°13.683 2°55.751 16.0125 0.017441 0.097385 -0.848668
2005-04-05 07:04:55 51°13.684 2°55.752 16.0463 0.017441 0.097388 -0.848668
2005-04-05 07:05:01 51°13.685 2°55.753 16.0529 0.017441 0.097388 -0.848668
2005-04-05 07:05:05 51°13.686 2°55.755 16.0493 0.017441 0.09739 -0.848668
2005-04-05 07:05:11 51°13.689 2°55.758 16.0619 0.017441 0.097391 -0.848668
2005-04-05 07:05:15 51°13.692 2°55.76 16.072 0.017441 0.097394 -0.848668
2005-04-05 07:05:21 51°13.695 2°55.762 16.0732 0.017441 0.097395 -0.814958
2005-04-05 07:05:25 51°13.698 2°55.763 16.0737 0.017441 0.097397 -0.848668
2005-04-05 07:05:31 51°13.704 2°55.765 16.058 0.017441 0.097397 -0.848668
2005-04-05 07:05:35 51°13.707 2°55.764 16.0552 0.017441 0.0974 -0.848668
2005-04-05 07:05:39 51°13.712 2°55.764 16.0593 0.017441 0.0974 -0.814958
2005-04-05 07:05:45 51°13.717 2°55.762 16.0598 0.017441 0.097401 -0.882377
2005-04-05 07:05:50 51°13.723 2°55.758 15.9808 0.017441 0.097402 -0.848668
2005-04-05 07:05:55 51°13.728 2°55.754 15.8906 0.017441 0.097401 -0.848668
2005-04-05 07:06:00 51°13.732 2°55.749 15.8323 0.017441 0.097401 -0.848668
2005-04-05 07:06:05 51°13.736 2°55.744 15.7016 0.017441 0.097401 -0.848668
2005-04-05 07:06:11 51°13.741 2°55.737 15.6918 0.017441 0.097402 -0.848668
2005-04-05 07:06:15 51°13.745 2°55.732 15.5417 0.017441 0.097402 -0.882377
2005-04-05 07:06:20 51°13.749 2°55.727 15.5651 0.017441 0.097401 -0.848668
2005-04-05 07:06:25 51°13.755 2°55.72 15.5344 0.017441 0.097402 -0.882377
2005-04-05 07:06:30 51°13.759 2°55.714 15.5627 0.017441 0.097402 -0.882377
2005-04-05 07:06:36 51°13.764 2°55.708 15.5521 0.017441 0.097402 -0.848668
2005-04-05 07:06:40 51°13.768 2°55.703 15.6107 0.017441 0.097405 -0.882377
2005-04-05 07:06:45 51°13.772 2°55.697 15.6046 0.017441 0.097405 -0.848668
2005-04-05 07:06:50 51°13.776 2°55.691 15.6214 0.017441 0.097407 -0.848668
2005-04-05 07:06:55 51°13.781 2°55.686 15.6233 0.017441 0.097408 -0.848668
2005-04-05 07:07:01 51°13.786 2°55.68 15.6784 0.017441 0.097408 -0.848668
2005-04-05 07:07:05 51°13.79 2°55.675 15.689 0.017441 0.097408 -0.882377
2005-04-05 07:07:10 51°13.795 2°55.67 15.6913 0.017441 0.097411 -0.848668
2005-04-05 07:07:15 51°13.8 2°55.665 15.7088 0.017441 0.097411 -0.848668
2005-04-05 07:07:20 51°13.805 2°55.66 15.7186 0.017441 0.097414 -0.882377
2005-04-05 07:07:25 51°13.809 2°55.656 15.7494 0.017441 0.097414 -0.848668
2005-04-05 07:07:30 51°13.815 2°55.651 15.7598 0.017441 0.097414 -0.848668
2005-04-05 07:07:35 51°13.819 2°55.646 15.8095 0.017441 0.097417 -0.848668
2005-04-05 07:07:40 51°13.824 2°55.641 15.8318 0.017441 0.097418 -0.848668
2005-04-05 07:07:45 51°13.828 2°55.637 15.8522 0.017441 0.097418 -0.848668
2005-04-05 07:07:51 51°13.833 2°55.631 15.8499 0.017441 0.097421 -0.882377
2005-04-05 07:07:55 51°13.838 2°55.626 15.858 0.017441 0.097421 -0.882377
2005-04-05 07:08:01 51°13.843 2°55.621 15.8588 0.017441 0.097421 -0.882377
2005-04-05 07:08:05 51°13.848 2°55.616 15.8578 0.017441 0.097424 -0.848668
2005-04-05 07:08:11 51°13.853 2°55.611 15.8607 0.017441 0.097425 -0.848668
2005-04-05 07:08:15 51°13.858 2°55.607 15.8486 0.017441 0.097428 -0.848668
2005-04-05 07:08:21 51°13.864 2°55.601 15.848 0.017441 0.09743 -0.848668
2005-04-05 07:08:26 51°13.87 2°55.595 15.8438 0.017441 0.097431 -0.848668
2005-04-05 07:08:31 51°13.875 2°55.589 15.8504 0.017441 0.097431 -0.848668
2005-04-05 07:08:35 51°13.881 2°55.584 15.8398 0.017441 0.097432 -0.882377
2005-04-05 07:08:40 51°13.886 2°55.579 15.8158 0.017441 0.097434 -0.848668
2005-04-05 07:08:45 51°13.893 2°55.572 15.7874 0.017441 0.097434 -0.848668
2005-04-05 07:08:51 51°13.899 2°55.565 15.754 0.017441 0.097434 -0.882377
2005-04-05 07:08:55 51°13.904 2°55.56 15.7738 0.017441 0.097437 -0.848668
2005-04-05 07:09:01 51°13.91 2°55.554 15.7672 0.017441 0.097437 -0.848668
2005-04-05 07:09:05 51°13.914 2°55.549 15.7454 0.017441 0.097439 -0.848668
2005-04-05 07:09:11 51°13.92 2°55.543 15.79 0.017441 0.097442 -0.848668
2005-04-05 07:09:15 51°13.925 2°55.538 15.7871 0.017441 0.097442 -0.848668
2005-04-05 07:09:19 51°13.929 2°55.533 15.843 0.017441 0.097445 -0.848668
2005-04-05 07:09:25 51°13.935 2°55.527 15.8224 0.017441 0.097447 -0.848668
2005-04-05 07:09:30 51°13.94 2°55.523 15.8552 0.017441 0.097447 -0.848668
2005-04-05 07:09:35 51°13.944 2°55.518 15.7845 0.017441 0.097448 -0.848668
2005-04-05 07:09:41 51°13.949 2°55.512 15.8367 0.017441 0.097449 -0.882377
2005-04-05 07:09:45 51°13.953 2°55.508 15.8239 0.017441 0.097451 -0.882377
2005-04-05 07:09:51 51°13.957 2°55.503 15.878 0.017441 0.097454 -0.848668
2005-04-05 07:09:55 51°13.96 2°55.499 15.8552 0.017441 0.097455 -0.848668
2005-04-05 07:10:01 51°13.964 2°55.495 15.8715 0.017441 0.097455 -0.848668
2005-04-05 07:10:05 51°13.966 2°55.491 15.7219 0.017441 0.097458 -0.848668
2005-04-05 07:10:10 51°13.97 2°55.487 15.7667 0.017441 0.097461 -0.882377
2005-04-05 07:10:15 51°13.972 2°55.483 15.896 0.017441 0.097461 -0.848668
2005-04-05 07:10:20 51°13.974 2°55.481 15.929 0.017441 0.097462 -0.882377
2005-04-05 07:10:25 51°13.976 2°55.478 15.9089 0.017441 0.097467 -0.882377
2005-04-05 07:10:31 51°13.979 2°55.475 15.9073 0.017441 0.097467 -0.882377
2005-04-05 07:10:35 51°13.981 2°55.473 15.9102 0.017441 0.097469 -0.882377
2005-04-05 07:10:41 51°13.983 2°55.47 15.7872 0.017441 0.097471 -0.848668
2005-04-05 07:10:45 51°13.985 2°55.468 15.9377 0.017441 0.097472 -0.882377
2005-04-05 07:10:51 51°13.986 2°55.467 16.0313 0.017441 0.097474 -0.882377
2005-04-05 07:10:55 51°13.988 2°55.464 15.5738 0.017441 0.097479 -0.882377
2005-04-05 07:11:01 51°13.991 2°55.461 15.7718 0.017441 0.097479 -0.882377
2005-04-05 07:11:05 51°13.993 2°55.459 15.4075 0.017441 0.097479 -0.848668
2005-04-05 07:11:11 51°13.995 2°55.457 15.714 0.017441 0.097477 -0.848668
2005-04-05 07:11:15 51°13.996 2°55.456 15.6647 0.017441 0.097475 -0.848668
2005-04-05 07:11:21 51°13.997 2°55.455 15.7393 0.017441 0.097481 -0.882377
2005-04-05 07:11:25 51°13.998 2°55.455 15.5828 0.017441 0.097484 -0.882377
2005-04-05 07:11:30 51°14 2°55.454 15.4616 0.017441 0.097484 -0.882377
2005-04-05 07:11:35 51°14.001 2°55.453 15.3083 0.017441 0.097487 -0.848668
2005-04-05 07:11:40 51°14.002 2°55.452 15.273 0.017441 0.097487 -0.814958
2005-04-05 07:11:45 51°14.003 2°55.452 15.2505 0.017441 0.097485 -0.848668
2005-04-05 07:11:51 51°14.004 2°55.452 15.2826 0.017441 0.097485 -0.882377
2005-04-05 07:11:55 51°14.005 2°55.451 15.3477 0.017441 0.097485 -0.848668
2005-04-05 07:12:01 51°14.006 2°55.451 15.3225 0.017441 0.097485 -0.848668
2005-04-05 07:12:05 51°14.007 2°55.451 15.3362 0.017441 0.097488 -0.848668
2005-04-05 07:12:11 51°14.009 2°55.45 15.2027 0.017441 0.097492 -0.848668
2005-04-05 07:12:15 51°14.009 2°55.45 15.2743 0.017441 0.097497 -0.848668
2005-04-05 07:12:21 51°14.01 2°55.45 15.3214 0.017441 0.097498 -0.848668
2005-04-05 07:12:25 51°14.011 2°55.45 15.2734 0.017441 0.097498 -0.848668
2005-04-05 07:12:31 51°14.011 2°55.45 15.3265 0.017441 0.097498 -0.848668
2005-04-05 07:12:35 51°14.012 2°55.45 15.3102 0.017441 0.0975 -0.848668
2005-04-05 07:12:40 51°14.012 2°55.45 15.396 0.017441 0.097507 -0.848668
2005-04-05 07:12:44 51°14.012 2°55.45 15.3689 0.017441 0.09751 -0.882377
2005-04-05 07:12:51 51°14.012 2°55.449 15.3716 0.017441 0.097512 -0.882377
2005-04-05 07:12:55 51°14.011 2°55.449 15.3507 0.017441 0.097515 -0.848668
2005-04-05 07:13:01 51°14.011 2°55.448 15.3425 0.017441 0.097515 -0.848668
2005-04-05 07:13:05 51°14.011 2°55.447 15.3295 0.017441 0.09752 -0.848668
2005-04-05 07:13:11 51°14.011 2°55.448 15.3369 0.017441 0.097522 -0.882377
2005-04-05 07:13:15 51°14.011 2°55.448 15.3293 0.017441 0.097524 -0.848668
2005-04-05 07:13:21 51°14.011 2°55.447 15.4012 0.017441 0.097527 -0.848668
2005-04-05 07:13:25 51°14.011 2°55.448 15.4161 0.017441 0.09753 -0.882377
2005-04-05 07:13:30 51°14.011 2°55.448 15.4365 0.017441 0.09753 -0.882377
2005-04-05 07:13:35 51°14.011 2°55.448 15.4438 0.017441 0.097531 -0.848668
2005-04-05 07:13:41 51°14.011 2°55.447 15.4475 0.017441 0.097535 -0.848668
2005-04-05 07:13:45 51°14.01 2°55.447 15.4529 0.017441 0.097535 -0.848668
2005-04-05 07:13:51 51°14.01 2°55.447 15.4563 0.017441 0.097538 -0.814958
2005-04-05 07:13:56 51°14.01 2°55.447 15.5056 0.017441 0.097541 -0.848668
2005-04-05 07:14:01 51°14.011 2°55.448 15.4775 0.017441 0.097541 -0.848668
2005-04-05 07:14:05 51°14.011 2°55.448 15.4781 0.017441 0.097542 -0.848668
2005-04-05 07:14:10 51°14.011 2°55.448 15.488 0.017441 0.097542 -0.848668
2005-04-05 07:14:15 51°14.011 2°55.448 15.494 0.017441 0.097545 -0.848668
2005-04-05 07:14:21 51°14.011 2°55.448 15.489 0.017441 0.097548 -0.848668
2005-04-05 07:14:25 51°14.01 2°55.448 15.4812 0.017441 0.09755 -0.848668
2005-04-05 07:14:30 51°14.01 2°55.447 15.454 0.017441 0.09755 -0.848668
2005-04-05 07:14:35 51°14.01 2°55.447 15.4345 0.017441 0.097552 -0.848668
2005-04-05 07:14:40 51°14.01 2°55.447 15.4055 0.017441 0.097554 -0.848668
2005-04-05 07:14:45 51°14.01 2°55.447 15.412 0.017441 0.097555 -0.848668
2005-04-05 07:14:51 51°14.011 2°55.448 15.5092 0.017441 0.097558 -0.848668
2005-04-05 07:14:55 51°14.011 2°55.448 15.5181 0.017441 0.09756 -0.882377
2005-04-05 07:15:01 51°14.011 2°55.448 15.5254 0.017441 0.09756 -0.882377
2005-04-05 07:15:05 51°14.011 2°55.448 15.4688 0.017441 0.09756 -0.848668
2005-04-05 07:15:11 51°14.011 2°55.447 15.4094 0.017441 0.097561 -0.848668
2005-04-05 07:15:16 51°14.011 2°55.447 15.4167 0.017441 0.097562 -0.882377
2005-04-05 07:15:20 51°14.011 2°55.448 15.4262 0.017441 0.097565 -0.848668
2005-04-05 07:15:25 51°14.011 2°55.448 15.4342 0.017441 0.097568 -0.848668
2005-04-05 07:15:31 51°14.011 2°55.448 15.4212 0.017441 0.097568 -0.848668
2005-04-05 07:15:35 51°14.011 2°55.447 15.4203 0.017441 0.09757 -0.848668
2005-04-05 07:15:39 51°14.011 2°55.447 15.4386 0.017441 0.09757 -0.848668
2005-04-05 07:15:46 51°14.011 2°55.448 15.4467 0.017441 0.097574 -0.814958
2005-04-05 07:15:51 51°14.011 2°55.448 15.4532 0.017441 0.097575 -0.848668
2005-04-05 07:15:55 51°14.011 2°55.448 15.457 0.017441 0.097575 -0.848668
2005-04-05 07:16:01 51°14.012 2°55.448 15.4573 0.017441 0.097575 -0.848668
2005-04-05 07:16:05 51°14.012 2°55.448 15.4598 0.017441 0.097578 -0.848668
2005-04-05 07:16:11 51°14.012 2°55.448 15.4602 0.017441 0.09758 -0.848668
2005-04-05 07:16:15 51°14.012 2°55.448 15.4632 0.017441 0.097583 -0.848668
2005-04-05 07:16:21 51°14.012 2°55.448 15.466 0.017441 0.097583 -0.848668
2005-04-05 07:16:25 51°14.012 2°55.448 15.4614 0.017441 0.097585 -0.848668
2005-04-05 07:16:30 51°14.012 2°55.448 15.4578 0.017441 0.097585 -0.848668
2005-04-05 07:16:35 51°14.012 2°55.448 15.4513 0.017441 0.097588 -0.848668
2005-04-05 07:16:41 51°14.012 2°55.448 15.4543 0.017441 0.097588 -0.848668
2005-04-05 07:16:46 51°14.011 2°55.448 15.4616 0.017441 0.097588 -0.848668
2005-04-05 07:16:51 51°14.011 2°55.448 15.4643 0.017441 0.097593 -0.848668
2005-04-05 07:16:55 51°14.011 2°55.448 15.4745 0.017441 0.097593 -0.848668
2005-04-05 07:16:59 51°14.011 2°55.448 15.4832 0.017441 0.097593 -0.848668
2005-04-05 07:17:05 51°14.01 2°55.447 15.4909 0.017441 0.097595 -0.848668
2005-04-05 07:17:11 51°14.01 2°55.447 15.4932 0.017441 0.097597 -0.848668
2005-04-05 07:17:16 51°14.01 2°55.447 15.4972 0.017441 0.097598 -0.882377
2005-04-05 07:17:20 51°14.01 2°55.447 15.5022 0.017441 0.097598 -0.848668
2005-04-05 07:17:25 51°14.01 2°55.447 15.5044 0.017441 0.097601 -0.848668
2005-04-05 07:17:31 51°14.01 2°55.447 15.5089 0.017441 0.097601 -0.848668
2005-04-05 07:17:35 51°14.01 2°55.447 15.5088 0.017441 0.097603 -0.848668
2005-04-05 07:17:40 51°14.01 2°55.447 15.5074 0.017441 0.097604 -0.848668
2005-04-05 07:17:45 51°14.009 2°55.446 15.5027 0.017441 0.097607 -0.882377
2005-04-05 07:17:51 51°14.009 2°55.446 15.4986 0.017441 0.097605 -0.848668
2005-04-05 07:17:55 51°14.009 2°55.446 15.5033 0.017441 0.097608 -0.848668
2005-04-05 07:18:01 51°14.009 2°55.446 15.5158 0.017441 0.097608 -0.848668
2005-04-05 07:18:05 51°14.009 2°55.446 15.519 0.017441 0.097608 -0.848668
2005-04-05 07:18:11 51°14.009 2°55.446 15.5258 0.017441 0.097611 -0.882377
2005-04-05 07:18:16 51°14.008 2°55.446 15.5263 0.017441 0.097613 -0.882377
2005-04-05 07:18:21 51°14.009 2°55.446 15.5261 0.017441 0.097614 -0.848668
2005-04-05 07:18:25 51°14.009 2°55.446 15.5207 0.017441 0.097616 -0.848668
2005-04-05 07:18:31 51°14.009 2°55.446 15.5234 0.017441 0.097616 -0.848668
2005-04-05 07:18:35 51°14.009 2°55.446 15.5273 0.017441 0.097617 -0.848668
2005-04-05 07:18:39 51°14.009 2°55.446 15.534 0.017441 0.097618 -0.848668
2005-04-05 07:18:44 51°14.009 2°55.446 15.5341 0.017441 0.097618 -0.882377
2005-04-05 07:18:51 51°14.009 2°55.446 15.5374 0.017337 0.097053 -0.848668
2005-04-05 07:18:55 51°14.009 2°55.446 15.5396 0.017441 0.097623 -0.882377
2005-04-05 07:19:01 51°14.009 2°55.446 15.5495 0.017441 0.097623 -0.882377
2005-04-05 07:19:05 51°14.009 2°55.446 15.5486 0.017441 0.097624 -0.848668
2005-04-05 07:19:11 51°14.009 2°55.447 15.5537 0.017441 0.097626 -0.848668
2005-04-05 07:19:15 51°14.01 2°55.448 15.5579 0.017441 0.097626 -0.848668
2005-04-05 07:19:20 51°14.01 2°55.448 15.5811 0.017441 0.097627 -0.848668
2005-04-05 07:19:25 51°14.01 2°55.448 15.5936 0.017441 0.097628 -0.848668
2005-04-05 07:19:30 51°14.01 2°55.448 15.5765 0.017441 0.097628 -0.848668
2005-04-05 07:19:35 51°14.01 2°55.448 15.5614 0.017441 0.09763 -0.882377
2005-04-05 07:19:40 51°14.01 2°55.449 15.5563 0.017441 0.097631 -0.882377
2005-04-05 07:19:45 51°14.011 2°55.449 15.5541 0.017337 0.097066 -0.848668
2005-04-05 07:19:51 51°14.011 2°55.449 15.5538 0.017337 0.097066 -0.848668
2005-04-05 07:19:55 51°14.011 2°55.449 15.5449 0.017441 0.097636 -0.848668
2005-04-05 07:19:59 51°14.011 2°55.448 15.5458 0.017441 0.097636 -0.848668
2005-04-05 07:20:04 51°14.011 2°55.448 15.5493 0.017441 0.097637 -0.848668
2005-04-05 07:20:11 51°14.011 2°55.449 15.5537 0.017337 0.097071 -0.848668
2005-04-05 07:20:15 51°14.011 2°55.449 15.5583 0.017441 0.097638 -0.848668
2005-04-05 07:20:19 51°14.011 2°55.449 15.5625 0.017441 0.097643 -0.882377
2005-04-05 07:20:25 51°14.011 2°55.449 15.5657 0.017441 0.097643 -0.848668
2005-04-05 07:20:31 51°14.011 2°55.449 15.5687 0.017441 0.097643 -0.848668
2005-04-05 07:20:35 51°14.011 2°55.449 15.5678 0.017337 0.097076 -0.882377
2005-04-05 07:20:41 51°14.011 2°55.448 15.5838 0.017441 0.097646 -0.848668
2005-04-05 07:20:45 51°14.011 2°55.449 15.5703 0.017337 0.097078 -0.848668
2005-04-05 07:20:51 51°14.011 2°55.449 15.568 0.017441 0.097649 -0.814958
2005-04-05 07:20:55 51°14.011 2°55.449 15.5574 0.017441 0.09765 -0.848668
2005-04-05 07:21:01 51°14.011 2°55.449 15.5628 0.017441 0.09765 -0.848668
2005-04-05 07:21:05 51°14.011 2°55.449 15.5645 0.017441 0.09765 -0.848668
2005-04-05 07:21:11 51°14.011 2°55.449 15.5665 0.017337 0.097083 -0.882377
2005-04-05 07:21:15 51°14.011 2°55.449 15.5669 0.017441 0.097654 -0.882377
2005-04-05 07:21:21 51°14.011 2°55.449 15.5715 0.017441 0.097656 -0.848668
2005-04-05 07:21:26 51°14.011 2°55.448 15.582 0.017337 0.097088 -0.848668
2005-04-05 07:21:30 51°14.01 2°55.448 15.5847 0.017337 0.097088 -0.848668
2005-04-05 07:21:36 51°14.01 2°55.448 15.5887 0.017337 0.097088 -0.848668
2005-04-05 07:21:40 51°14.01 2°55.448 15.5638 0.017337 0.09709 -0.882377
2005-04-05 07:21:45 51°14.01 2°55.448 15.5637 0.017337 0.09709 -0.848668
2005-04-05 07:21:51 51°14.01 2°55.448 15.5736 0.017337 0.097093 -0.848668
2005-04-05 07:21:55 51°14.01 2°55.448 15.5775 0.017337 0.097093 -0.848668
2005-04-05 07:22:01 51°14.01 2°55.448 15.587 0.017337 0.097093 -0.848668
2005-04-05 07:22:05 51°14.01 2°55.448 15.5877 0.017337 0.097094 -0.882377
2005-04-05 07:22:10 51°14.01 2°55.448 15.5947 0.017337 0.097096 -0.848668
2005-04-05 07:22:15 51°14.01 2°55.448 15.6005 0.017337 0.097097 -0.882377
2005-04-05 07:22:21 51°14.01 2°55.448 15.5933 0.017337 0.097098 -0.882377
2005-04-05 07:22:26 51°14.01 2°55.448 15.5934 0.017337 0.097098 -0.882377
2005-04-05 07:22:30 51°14.01 2°55.448 15.5949 0.017337 0.097098 -0.882377
2005-04-05 07:22:36 51°14.01 2°55.448 15.5942 0.017337 0.097101 -0.848668
2005-04-05 07:22:41 51°14.01 2°55.448 15.599 0.017337 0.097103 -0.848668
2005-04-05 07:22:46 51°14.01 2°55.448 15.6064 0.017337 0.097104 -0.848668
2005-04-05 07:22:51 51°14.01 2°55.448 15.6105 0.017337 0.097104 -0.848668
2005-04-05 07:22:55 51°14.01 2°55.448 15.6175 0.017337 0.097106 -0.848668
2005-04-05 07:23:00 51°14.01 2°55.448 15.6021 0.017337 0.097106 -0.848668
2005-04-05 07:23:05 51°14.01 2°55.448 15.6005 0.017337 0.097106 -0.848668
2005-04-05 07:23:10 51°14.01 2°55.448 15.5815 0.017337 0.097107 -0.882377
2005-04-05 07:23:15 51°14.01 2°55.448 15.5933 0.017337 0.097108 -0.848668
2005-04-05 07:23:21 51°14.01 2°55.448 15.6181 0.017337 0.09711 -0.848668
2005-04-05 07:23:25 51°14.01 2°55.448 15.5999 0.017337 0.097111 -0.848668
2005-04-05 07:23:30 51°14.01 2°55.448 15.6004 0.017337 0.097111 -0.848668
2005-04-05 07:23:35 51°14.01 2°55.448 15.6035 0.017337 0.097113 -0.882377
2005-04-05 07:23:39 51°14.01 2°55.448 15.6083 0.017337 0.097113 -0.848668
2005-04-05 07:23:45 51°14.01 2°55.448 15.614 0.017337 0.097116 -0.848668
2005-04-05 07:23:51 51°14.01 2°55.448 15.6162 0.017337 0.097117 -0.882377
2005-04-05 07:23:55 51°14.01 2°55.448 15.6266 0.017337 0.097118 -0.882377
2005-04-05 07:24:01 51°14.009 2°55.447 15.6274 0.017337 0.097118 -0.882377
2005-04-05 07:24:05 51°14.009 2°55.447 15.6276 0.017337 0.097117 -0.848668
2005-04-05 07:24:11 51°14.009 2°55.447 15.6367 0.017337 0.09712 -0.848668
2005-04-05 07:24:15 51°14.009 2°55.447 15.6458 0.017337 0.097121 -0.848668
2005-04-05 07:24:21 51°14.01 2°55.447 15.6246 0.017337 0.097121 -0.882377
2005-04-05 07:24:25 51°14.01 2°55.447 15.6275 0.017337 0.097118 -0.882377
2005-04-05 07:24:30 51°14.01 2°55.448 15.6518 0.017337 0.097118 -0.882377
2005-04-05 07:24:35 51°14.01 2°55.448 15.6392 0.017337 0.097118 -0.848668
2005-04-05 07:24:39 51°14.01 2°55.448 15.6449 0.017337 0.097121 -0.882377
2005-04-05 07:24:45 51°14.01 2°55.448 15.6466 0.017337 0.097123 -0.848668
2005-04-05 07:24:51 51°14.01 2°55.448 15.6481 0.017337 0.097127 -0.848668
2005-04-05 07:24:55 51°14.01 2°55.448 15.6519 0.017337 0.09713 -0.848668
2005-04-05 07:25:00 51°14.01 2°55.448 15.649 0.017337 0.09713 -0.848668
2005-04-05 07:25:05 51°14.01 2°55.447 15.6496 0.017337 0.097131 -0.848668
2005-04-05 07:25:11 51°14.01 2°55.447 15.6456 0.017337 0.097133 -0.848668
2005-04-05 07:25:16 51°14.01 2°55.447 15.647 0.017337 0.097134 -0.848668
2005-04-05 07:25:21 51°14.01 2°55.448 15.6497 0.017337 0.097136 -0.848668
2005-04-05 07:25:25 51°14.01 2°55.447 15.6499 0.017337 0.097136 -0.848668
2005-04-05 07:25:31 51°14.01 2°55.447 15.6511 0.017337 0.097136 -0.848668
2005-04-05 07:25:36 51°14.01 2°55.447 15.654 0.017337 0.097137 -0.848668
2005-04-05 07:25:41 51°14.01 2°55.447 15.6566 0.017337 0.09714 -0.848668
2005-04-05 07:25:45 51°14.01 2°55.447 15.6544 0.017337 0.09714 -0.848668
2005-04-05 07:25:51 51°14.01 2°55.447 15.6492 0.017337 0.09714 -0.848668
2005-04-05 07:25:55 51°14.01 2°55.447 15.6589 0.017337 0.097143 -0.882377
2005-04-05 07:26:01 51°14.01 2°55.447 15.6477 0.017337 0.097143 -0.882377
2005-04-05 07:26:05 51°14.01 2°55.447 15.6522 0.017337 0.097144 -0.848668
2005-04-05 07:26:10 51°14.01 2°55.447 15.6741 0.017337 0.097143 -0.848668
2005-04-05 07:26:15 51°14.01 2°55.447 15.6862 0.017337 0.097144 -0.882377
2005-04-05 07:26:21 51°14.01 2°55.447 15.6889 0.017337 0.097146 -0.848668
2005-04-05 07:26:25 51°14.01 2°55.447 15.6684 0.017337 0.097147 -0.848668
2005-04-05 07:26:31 51°14.01 2°55.447 15.6779 0.017337 0.097147 -0.848668
2005-04-05 07:26:35 51°14.01 2°55.447 15.6951 0.017337 0.097148 -0.882377
2005-04-05 07:26:40 51°14.01 2°55.447 15.696 0.017337 0.097148 -0.882377
2005-04-05 07:26:45 51°14.01 2°55.447 15.6825 0.017337 0.09715 -0.848668
2005-04-05 07:26:51 51°14.01 2°55.447 15.68 0.017337 0.097151 -0.848668
2005-04-05 07:26:55 51°14.01 2°55.447 15.676 0.017337 0.097151 -0.848668
2005-04-05 07:27:01 51°14.011 2°55.448 15.6766 0.017337 0.097151 -0.848668
2005-04-05 07:27:05 51°14.012 2°55.448 15.6787 0.017337 0.097154 -0.882377
2005-04-05 07:27:11 51°14.012 2°55.449 15.6786 0.017337 0.097154 -0.848668
2005-04-05 07:27:15 51°14.012 2°55.449 15.6764 0.017337 0.097156 -0.848668
2005-04-05 07:27:21 51°14.012 2°55.449 15.68 0.017337 0.097157 -0.882377
2005-04-05 07:27:26 51°14.012 2°55.449 15.6838 0.017337 0.097158 -0.882377
2005-04-05 07:27:31 51°14.012 2°55.449 15.685 0.017337 0.097158 -0.882377
2005-04-05 07:27:35 51°14.012 2°55.449 15.688 0.017337 0.09716 -0.882377
2005-04-05 07:27:41 51°14.012 2°55.449 15.6834 0.017337 0.097161 -0.848668
2005-04-05 07:27:45 51°14.012 2°55.449 15.6797 0.017337 0.097161 -0.848668
2005-04-05 07:27:51 51°14.012 2°55.449 15.682 0.017337 0.097164 -0.848668
2005-04-05 07:27:56 51°14.012 2°55.449 15.687 0.017337 0.097163 -0.814958
2005-04-05 07:28:00 51°14.012 2°55.449 15.6888 0.017337 0.097163 -0.814958
2005-04-05 07:28:05 51°14.012 2°55.449 15.6976 0.017337 0.097164 -0.882377
2005-04-05 07:28:11 51°14.012 2°55.448 15.7005 0.017337 0.097166 -0.882377
2005-04-05 07:28:15 51°14.012 2°55.448 15.6987 0.017337 0.097167 -0.848668
2005-04-05 07:28:21 51°14.012 2°55.448 15.6975 0.017337 0.097168 -0.882377
2005-04-05 07:28:25 51°14.012 2°55.448 15.7012 0.017337 0.097168 -0.882377
2005-04-05 07:28:31 51°14.012 2°55.448 15.6947 0.017337 0.097168 -0.882377
2005-04-05 07:28:35 51°14.012 2°55.449 15.7083 0.017337 0.097171 -0.848668
2005-04-05 07:28:40 51°14.013 2°55.449 15.713 0.017337 0.097171 -0.882377
2005-04-05 07:28:45 51°14.013 2°55.449 15.7257 0.017337 0.097173 -0.882377
2005-04-05 07:28:51 51°14.013 2°55.449 15.7189 0.017337 0.097174 -0.848668
2005-04-05 07:28:55 51°14.013 2°55.449 15.7156 0.017337 0.097174 -0.848668
2005-04-05 07:29:00 51°14.013 2°55.449 15.7159 0.017337 0.097174 -0.848668
2005-04-05 07:29:06 51°14.013 2°55.449 15.7179 0.017337 0.097176 -0.882377
2005-04-05 07:29:10 51°14.013 2°55.449 15.7194 0.017337 0.097177 -0.848668
2005-04-05 07:29:15 51°14.013 2°55.449 15.7209 0.017337 0.097178 -0.848668
2005-04-05 07:29:21 51°14.013 2°55.449 15.7198 0.017337 0.09718 -0.848668
2005-04-05 07:29:25 51°14.013 2°55.449 15.7244 0.017337 0.097183 -0.848668
2005-04-05 07:29:31 51°14.013 2°55.449 15.7313 0.017337 0.097183 -0.848668
2005-04-05 07:29:35 51°14.013 2°55.449 15.7173 0.017337 0.097181 -0.848668
2005-04-05 07:29:41 51°14.013 2°55.45 15.7184 0.017337 0.097183 -0.882377
2005-04-05 07:29:45 51°14.013 2°55.45 15.7134 0.017337 0.097183 -0.882377
2005-04-05 07:29:50 51°14.013 2°55.45 15.7416 0.017337 0.097186 -0.882377
2005-04-05 07:29:55 51°14.013 2°55.449 15.7413 0.017337 0.097184 -0.848668
2005-04-05 07:30:01 51°14.013 2°55.449 15.7396 0.017337 0.097184 -0.848668
2005-04-05 07:30:05 51°14.012 2°55.449 15.7487 0.017337 0.097187 -0.882377
2005-04-05 07:30:10 51°14.012 2°55.449 15.7476 0.017337 0.097187 -0.882377
2005-04-05 07:30:15 51°14.012 2°55.449 15.7649 0.017337 0.097188 -0.882377
2005-04-05 07:30:21 51°14.012 2°55.449 15.7455 0.017337 0.097188 -0.848668
2005-04-05 07:30:25 51°14.011 2°55.448 15.7472 0.017337 0.09719 -0.882377
2005-04-05 07:30:30 51°14.011 2°55.448 15.7487 0.017337 0.09719 -0.882377
2005-04-05 07:30:35 51°14.011 2°55.448 15.7388 0.017337 0.097191 -0.882377
2005-04-05 07:30:41 51°14.011 2°55.448 15.7537 0.017337 0.097191 -0.848668
2005-04-05 07:30:44 51°14.011 2°55.448 15.7549 0.017337 0.097193 -0.848668
2005-04-05 07:30:51 51°14.011 2°55.448 15.7625 0.017337 0.097194 -0.882377
2005-04-05 07:30:55 51°14.011 2°55.448 15.758 0.017337 0.097196 -0.848668
2005-04-05 07:31:01 51°14.011 2°55.448 15.7567 0.017337 0.097196 -0.848668
2005-04-05 07:31:05 51°14.011 2°55.448 15.7537 0.017337 0.097197 -0.848668
2005-04-05 07:31:11 51°14.011 2°55.448 15.7482 0.017337 0.097198 -0.848668
2005-04-05 07:31:15 51°14.012 2°55.448 15.7465 0.017337 0.097198 -0.848668
2005-04-05 07:31:20 51°14.012 2°55.448 15.7473 0.017337 0.0972 -0.848668
2005-04-05 07:31:25 51°14.012 2°55.448 15.7469 0.017337 0.0972 -0.848668
2005-04-05 07:31:31 51°14.012 2°55.449 15.7545 0.017337 0.0972 -0.848668
2005-04-05 07:31:36 51°14.011 2°55.449 15.7628 0.017337 0.097201 -0.848668
2005-04-05 07:31:41 51°14.011 2°55.449 15.7625 0.017337 0.097203 -0.882377
2005-04-05 07:31:45 51°14.011 2°55.448 15.7623 0.017337 0.097206 -0.882377
2005-04-05 07:31:51 51°14.011 2°55.449 15.7633 0.017337 0.097206 -0.848668
2005-04-05 07:31:56 51°14.012 2°55.449 15.7647 0.017337 0.097206 -0.848668
2005-04-05 07:32:00 51°14.012 2°55.449 15.7543 0.017337 0.097206 -0.848668
2005-04-05 07:32:06 51°14.012 2°55.449 15.7565 0.017337 0.097208 -0.848668
2005-04-05 07:32:11 51°14.012 2°55.449 15.7593 0.017337 0.097208 -0.848668
2005-04-05 07:32:15 51°14.012 2°55.449 15.7692 0.017337 0.09721 -0.882377
2005-04-05 07:32:19 51°14.012 2°55.449 15.775 0.017337 0.09721 -0.882377
2005-04-05 07:32:25 51°14.012 2°55.449 15.7907 0.017337 0.097211 -0.882377
2005-04-05 07:32:31 51°14.012 2°55.449 15.7809 0.017337 0.097211 -0.882377
2005-04-05 07:32:35 51°14.012 2°55.449 15.7843 0.017337 0.097214 -0.848668
2005-04-05 07:32:41 51°14.012 2°55.449 15.7961 0.017337 0.097213 -0.848668
2005-04-05 07:32:46 51°14.012 2°55.449 15.804 0.017337 0.097213 -0.848668
2005-04-05 07:32:50 51°14.012 2°55.449 15.8049 0.017337 0.097216 -0.848668
2005-04-05 07:32:55 51°14.012 2°55.449 15.7966 0.017337 0.097214 -0.882377
2005-04-05 07:33:01 51°14.012 2°55.449 15.7943 0.017337 0.097214 -0.882377
2005-04-05 07:33:05 51°14.012 2°55.449 15.8009 0.017337 0.097217 -0.882377
2005-04-05 07:33:10 51°14.012 2°55.449 15.8131 0.017337 0.097217 -0.882377
2005-04-05 07:33:16 51°14.012 2°55.449 15.8058 0.017337 0.097218 -0.848668
2005-04-05 07:33:20 51°14.012 2°55.449 15.8062 0.017337 0.097218 -0.882377
2005-04-05 07:33:25 51°14.012 2°55.448 15.8091 0.017337 0.09722 -0.848668
2005-04-05 07:33:31 51°14.012 2°55.449 15.8093 0.017337 0.09722 -0.848668
2005-04-05 07:33:36 51°14.012 2°55.449 15.8095 0.017337 0.097221 -0.882377
2005-04-05 07:33:41 51°14.012 2°55.449 15.8082 0.017337 0.097221 -0.848668
2005-04-05 07:33:45 51°14.012 2°55.449 15.8017 0.017337 0.097224 -0.882377
2005-04-05 07:33:50 51°14.012 2°55.449 15.786 0.017337 0.097226 -0.814958
2005-04-05 07:33:55 51°14.012 2°55.449 15.7734 0.017337 0.097227 -0.848668
2005-04-05 07:34:01 51°14.012 2°55.448 15.7882 0.017337 0.097227 -0.848668
2005-04-05 07:34:05 51°14.012 2°55.448 15.7867 0.017337 0.097227 -0.848668
2005-04-05 07:34:11 51°14.012 2°55.448 15.7847 0.017337 0.097228 -0.848668
2005-04-05 07:34:15 51°14.012 2°55.448 15.7886 0.017337 0.097228 -0.848668
2005-04-05 07:34:20 51°14.012 2°55.448 15.7937 0.017337 0.09723 -0.848668
2005-04-05 07:34:25 51°14.012 2°55.448 15.8024 0.017337 0.09723 -0.848668
2005-04-05 07:34:31 51°14.012 2°55.448 15.8003 0.017337 0.09723 -0.848668
2005-04-05 07:34:36 51°14.012 2°55.448 15.7957 0.017337 0.097233 -0.848668
2005-04-05 07:34:41 51°14.012 2°55.449 15.8045 0.017337 0.097231 -0.848668
2005-04-05 07:34:46 51°14.012 2°55.449 15.8207 0.017337 0.097233 -0.848668
2005-04-05 07:34:50 51°14.012 2°55.449 15.804 0.017337 0.097234 -0.882377
2005-04-05 07:34:55 51°14.012 2°55.449 15.7981 0.017337 0.097236 -0.848668
2005-04-05 07:35:01 51°14.012 2°55.449 15.8035 0.017337 0.097236 -0.848668
2005-04-05 07:35:04 51°14.012 2°55.449 15.8065 0.017337 0.097237 -0.882377
2005-04-05 07:35:11 51°14.012 2°55.449 15.8192 0.017337 0.097237 -0.848668
2005-04-05 07:35:15 51°14.011 2°55.449 15.8161 0.017337 0.097239 -0.848668
2005-04-05 07:35:20 51°14.011 2°55.449 15.8098 0.017337 0.097239 -0.848668
2005-04-05 07:35:26 51°14.011 2°55.449 15.814 0.017337 0.09724 -0.848668
2005-04-05 07:35:31 51°14.011 2°55.448 15.8181 0.017337 0.09724 -0.848668
2005-04-05 07:35:35 51°14.011 2°55.448 15.8167 0.017337 0.097241 -0.882377
2005-04-05 07:35:41 51°14.011 2°55.448 15.8159 0.017337 0.097243 -0.882377
2005-04-05 07:35:45 51°14.011 2°55.448 15.8178 0.017337 0.097243 -0.848668
2005-04-05 07:35:51 51°14.011 2°55.448 15.8182 0.017337 0.097244 -0.882377
2005-04-05 07:35:55 51°14.011 2°55.448 15.815 0.017337 0.097244 -0.848668
2005-04-05 07:36:01 51°14.011 2°55.448 15.8205 0.017337 0.097244 -0.848668
2005-04-05 07:36:05 51°14.011 2°55.448 15.8208 0.017337 0.097246 -0.848668
2005-04-05 07:36:11 51°14.011 2°55.448 15.8109 0.017337 0.097246 -0.848668
2005-04-05 07:36:15 51°14.01 2°55.447 15.8204 0.017337 0.097247 -0.848668
2005-04-05 07:36:21 51°14.01 2°55.447 15.8294 0.017337 0.09725 -0.848668
2005-04-05 07:36:25 51°14.01 2°55.447 15.824 0.017337 0.097249 -0.848668
2005-04-05 07:36:31 51°14.01 2°55.447 15.8263 0.017337 0.097249 -0.848668
2005-04-05 07:36:35 51°14.01 2°55.447 15.8367 0.017337 0.097249 -0.882377
2005-04-05 07:36:41 51°14.01 2°55.447 15.8149 0.017337 0.09725 -0.882377
2005-04-05 07:36:45 51°14.01 2°55.448 15.8296 0.017337 0.09725 -0.848668
2005-04-05 07:36:51 51°14.011 2°55.448 15.8353 0.017337 0.097253 -0.848668
2005-04-05 07:36:55 51°14.011 2°55.448 15.8307 0.017337 0.097253 -0.882377
2005-04-05 07:37:01 51°14.011 2°55.448 15.8306 0.017337 0.097253 -0.882377
2005-04-05 07:37:05 51°14.011 2°55.448 15.834 0.017337 0.097254 -0.848668
2005-04-05 07:37:11 51°14.011 2°55.448 15.8342 0.017337 0.097256 -0.882377
2005-04-05 07:37:15 51°14.011 2°55.448 15.8344 0.017337 0.097256 -0.882377
2005-04-05 07:37:21 51°14.011 2°55.448 15.8231 0.017337 0.097256 -0.848668
2005-04-05 07:37:25 51°14.011 2°55.448 15.829 0.017337 0.097256 -0.848668
2005-04-05 07:37:31 51°14.011 2°55.448 15.8287 0.017337 0.097256 -0.848668
2005-04-05 07:37:35 51°14.011 2°55.448 15.8429 0.017337 0.097259 -0.848668
2005-04-05 07:37:40 51°14.011 2°55.448 15.8448 0.017337 0.09726 -0.882377
2005-04-05 07:37:45 51°14.011 2°55.448 15.8442 0.017337 0.09726 -0.848668
2005-04-05 07:37:51 51°14.011 2°55.448 15.852 0.017337 0.097263 -0.848668
2005-04-05 07:37:55 51°14.011 2°55.448 15.8561 0.017337 0.097261 -0.848668
2005-04-05 07:38:01 51°14.011 2°55.448 15.8604 0.017337 0.097261 -0.848668
2005-04-05 07:38:05 51°14.011 2°55.447 15.8645 0.017337 0.097263 -0.848668
2005-04-05 07:38:11 51°14.01 2°55.447 15.8613 0.017337 0.097263 -0.848668
2005-04-05 07:38:15 51°14.01 2°55.447 15.8524 0.017337 0.097263 -0.882377
2005-04-05 07:38:20 51°14.01 2°55.447 15.8607 0.017337 0.097266 -0.848668
2005-04-05 07:38:24 51°14.01 2°55.447 15.8596 0.017337 0.097267 -0.848668
2005-04-05 07:38:31 51°14.01 2°55.447 15.8636 0.017337 0.097267 -0.848668
2005-04-05 07:38:35 51°14.011 2°55.447 15.859 0.017337 0.097267 -0.848668
2005-04-05 07:38:40 51°14.012 2°55.448 15.8538 0.017337 0.097269 -0.882377
2005-04-05 07:38:46 51°14.012 2°55.448 15.8539 0.017337 0.09727 -0.848668
2005-04-05 07:38:50 51°14.012 2°55.448 15.8683 0.017337 0.09727 -0.848668
2005-04-05 07:38:55 51°14.012 2°55.448 15.8792 0.017337 0.097271 -0.848668
2005-04-05 07:39:01 51°14.012 2°55.448 15.8732 0.017337 0.097271 -0.848668
2005-04-05 07:39:05 51°14.012 2°55.449 15.8885 0.017337 0.097271 -0.848668
2005-04-05 07:39:11 51°14.012 2°55.449 15.873 0.017337 0.097273 -0.848668
2005-04-05 07:39:16 51°14.012 2°55.449 15.8534 0.017337 0.097273 -0.882377
2005-04-05 07:39:21 51°14.012 2°55.449 15.8523 0.017337 0.097276 -0.882377
2005-04-05 07:39:25 51°14.012 2°55.449 15.861 0.017337 0.097274 -0.882377
2005-04-05 07:39:31 51°14.012 2°55.449 15.8883 0.017337 0.097274 -0.882377
2005-04-05 07:39:35 51°14.012 2°55.449 15.8901 0.017337 0.097276 -0.848668
2005-04-05 07:39:41 51°14.012 2°55.448 15.8921 0.017337 0.097277 -0.848668
2005-04-05 07:39:46 51°14.012 2°55.449 15.8877 0.017337 0.097279 -0.882377
2005-04-05 07:39:51 51°14.012 2°55.449 15.8838 0.017337 0.09728 -0.848668
2005-04-05 07:39:55 51°14.012 2°55.449 15.8833 0.017337 0.09728 -0.848668
2005-04-05 07:39:59 51°14.012 2°55.449 15.8919 0.017337 0.09728 -0.848668
2005-04-05 07:40:05 51°14.012 2°55.449 15.8994 0.017337 0.097282 -0.882377
2005-04-05 07:40:11 51°14.012 2°55.449 15.9047 0.017337 0.097283 -0.882377
2005-04-05 07:40:15 51°14.012 2°55.448 15.9094 0.017337 0.097283 -0.848668
2005-04-05 07:40:20 51°14.012 2°55.448 15.9097 0.017337 0.097284 -0.848668
2005-04-05 07:40:25 51°14.012 2°55.448 15.911 0.017337 0.097284 -0.882377
2005-04-05 07:40:31 51°14.012 2°55.448 15.9119 0.017337 0.097284 -0.882377
2005-04-05 07:40:35 51°14.012 2°55.448 15.9105 0.017337 0.097284 -0.848668
2005-04-05 07:40:39 51°14.011 2°55.448 15.9106 0.017337 0.097287 -0.882377
2005-04-05 07:40:45 51°14.011 2°55.448 15.9079 0.017337 0.097289 -0.882377
2005-04-05 07:40:51 51°14.012 2°55.449 15.9122 0.017337 0.097289 -0.848668
2005-04-05 07:40:55 51°14.012 2°55.449 15.9147 0.017337 0.097289 -0.848668
2005-04-05 07:41:01 51°14.012 2°55.449 15.915 0.017337 0.097289 -0.848668
2005-04-05 07:41:05 51°14.013 2°55.449 15.9164 0.017337 0.09729 -0.882377
2005-04-05 07:41:11 51°14.013 2°55.449 15.9214 0.017337 0.097292 -0.848668
2005-04-05 07:41:15 51°14.013 2°55.449 15.9291 0.017337 0.097292 -0.848668
2005-04-05 07:41:20 51°14.013 2°55.449 15.9424 0.017337 0.097292 -0.848668
2005-04-05 07:41:25 51°14.013 2°55.449 15.9559 0.017337 0.097294 -0.882377
2005-04-05 07:41:30 51°14.013 2°55.449 15.9562 0.017337 0.097294 -0.882377
2005-04-05 07:41:35 51°14.013 2°55.449 15.9448 0.017337 0.097294 -0.848668
2005-04-05 07:41:41 51°14.013 2°55.449 15.9439 0.017337 0.097296 -0.848668
2005-04-05 07:41:45 51°14.013 2°55.449 15.9381 0.017337 0.097296 -0.882377
2005-04-05 07:41:51 51°14.013 2°55.449 15.9334 0.017337 0.097299 -0.882377
2005-04-05 07:41:55 51°14.013 2°55.449 15.9377 0.017337 0.097299 -0.848668
2005-04-05 07:42:01 51°14.013 2°55.449 15.9423 0.017337 0.097299 -0.848668
2005-04-05 07:42:05 51°14.013 2°55.449 15.9463 0.017337 0.0973 -0.882377
2005-04-05 07:42:11 51°14.013 2°55.449 15.9472 0.017337 0.0973 -0.882377
2005-04-05 07:42:15 51°14.013 2°55.449 15.9688 0.017337 0.0973 -0.848668
2005-04-05 07:42:21 51°14.013 2°55.449 15.9486 0.017337 0.0973 -0.848668
2005-04-05 07:42:25 51°14.013 2°55.449 15.938 0.017337 0.097302 -0.882377
2005-04-05 07:42:30 51°14.013 2°55.449 15.9286 0.017337 0.097302 -0.882377
2005-04-05 07:42:35 51°14.013 2°55.449 15.9218 0.017337 0.097303 -0.882377
2005-04-05 07:42:41 51°14.012 2°55.449 15.9278 0.017337 0.097303 -0.848668
2005-04-05 07:42:45 51°14.012 2°55.449 15.9328 0.017337 0.097304 -0.848668
2005-04-05 07:42:50 51°14.012 2°55.449 15.9299 0.017337 0.097304 -0.882377
2005-04-05 07:42:55 51°14.012 2°55.449 15.9283 0.017337 0.097304 -0.882377
2005-04-05 07:43:01 51°14.012 2°55.449 15.935 0.017337 0.097304 -0.882377
2005-04-05 07:43:05 51°14.012 2°55.449 15.9391 0.017337 0.097306 -0.848668
2005-04-05 07:43:11 51°14.012 2°55.449 15.9459 0.017337 0.097307 -0.848668
2005-04-05 07:43:15 51°14.012 2°55.449 15.9509 0.017337 0.097309 -0.848668
2005-04-05 07:43:20 51°14.012 2°55.449 15.9558 0.017337 0.097309 -0.848668
2005-04-05 07:43:26 51°14.012 2°55.449 15.9589 0.017233 0.09674 -0.882377
2005-04-05 07:43:31 51°14.012 2°55.449 15.9588 0.017233 0.09674 -0.882377
2005-04-05 07:43:35 51°14.012 2°55.449 15.9583 0.017337 0.09731 -0.848668
2005-04-05 07:43:41 51°14.013 2°55.449 15.9718 0.017233 0.096742 -0.848668
2005-04-05 07:43:45 51°14.013 2°55.449 15.967 0.017337 0.097312 -0.882377
2005-04-05 07:43:50 51°14.012 2°55.448 15.9588 0.017337 0.097313 -0.882377
2005-04-05 07:43:55 51°14.012 2°55.448 15.9599 0.017337 0.097313 -0.848668
2005-04-05 07:44:01 51°14.012 2°55.448 15.9625 0.017337 0.097313 -0.848668
2005-04-05 07:44:05 51°14.012 2°55.448 15.9643 0.017233 0.096743 -0.882377
2005-04-05 07:44:11 51°14.012 2°55.448 15.9674 0.017233 0.096744 -0.848668
2005-04-05 07:44:15 51°14.012 2°55.448 15.9654 0.017337 0.097316 -0.882377
2005-04-05 07:44:21 51°14.012 2°55.448 15.9721 0.017337 0.097316 -0.848668
2005-04-05 07:44:25 51°14.012 2°55.448 15.9774 0.017233 0.096747 -0.848668
2005-04-05 07:44:31 51°14.012 2°55.448 15.9749 0.017233 0.096747 -0.848668
2005-04-05 07:44:35 51°14.012 2°55.448 15.9752 0.017337 0.097317 -0.848668
2005-04-05 07:44:41 51°14.012 2°55.448 15.9792 0.017337 0.097319 -0.848668
2005-04-05 07:44:45 51°14.012 2°55.448 15.9803 0.017337 0.09732 -0.848668
2005-04-05 07:44:51 51°14.012 2°55.448 15.9838 0.017337 0.09732 -0.882377
2005-04-05 07:44:55 51°14.012 2°55.448 15.9833 0.017233 0.096752 -0.848668
2005-04-05 07:45:00 51°14.012 2°55.448 15.9806 0.017233 0.096752 -0.848668
2005-04-05 07:45:05 51°14.012 2°55.448 15.9825 0.017337 0.097322 -0.848668
2005-04-05 07:45:11 51°14.011 2°55.448 15.9728 0.017337 0.097323 -0.882377
2005-04-05 07:45:15 51°14.011 2°55.448 15.978 0.017337 0.097323 -0.882377
2005-04-05 07:45:21 51°14.011 2°55.448 15.9738 0.017337 0.097323 -0.848668
2005-04-05 07:45:25 51°14.011 2°55.448 15.9679 0.017337 0.097325 -0.848668
2005-04-05 07:45:31 51°14.011 2°55.448 15.9698 0.017337 0.097325 -0.848668
2005-04-05 07:45:35 51°14.011 2°55.448 15.9875 0.017337 0.097326 -0.848668
2005-04-05 07:45:40 51°14.011 2°55.447 16.0012 0.017337 0.097325 -0.848668
2005-04-05 07:45:45 51°14.011 2°55.447 16.001 0.017337 0.097326 -0.882377
2005-04-05 07:45:51 51°14.011 2°55.447 16.0038 0.017233 0.096759 -0.882377
2005-04-05 07:45:55 51°14.011 2°55.447 15.994 0.017337 0.097329 -0.848668
2005-04-05 07:45:59 51°14.012 2°55.448 15.987 0.017337 0.097329 -0.848668
2005-04-05 07:46:04 51°14.012 2°55.448 15.9912 0.017337 0.097329 -0.882377
2005-04-05 07:46:11 51°14.012 2°55.448 15.9962 0.017337 0.09733 -0.848668
2005-04-05 07:46:15 51°14.012 2°55.448 15.9933 0.017337 0.09733 -0.848668
2005-04-05 07:46:21 51°14.012 2°55.448 15.9935 0.017233 0.09676 -0.848668
2005-04-05 07:46:25 51°14.012 2°55.448 15.9945 0.017337 0.097332 -0.882377
2005-04-05 07:46:30 51°14.012 2°55.448 15.9988 0.017337 0.097332 -0.882377
2005-04-05 07:46:35 51°14.012 2°55.448 16.0002 0.017337 0.09733 -0.848668
2005-04-05 07:46:41 51°14.012 2°55.448 16.0024 0.017233 0.096763 -0.848668
2005-04-05 07:46:45 51°14.011 2°55.448 15.9986 0.017233 0.096764 -0.882377
2005-04-05 07:46:51 51°14.011 2°55.448 16.0249 0.017233 0.096764 -0.848668
2005-04-05 07:46:55 51°14.012 2°55.448 16.0246 0.017233 0.096764 -0.814958
2005-04-05 07:47:01 51°14.012 2°55.448 16.0214 0.017233 0.096764 -0.814958
2005-04-05 07:47:05 51°14.012 2°55.448 16.0233 0.017337 0.097335 -0.882377
2005-04-05 07:47:11 51°14.012 2°55.448 16.0233 0.017233 0.096766 -0.882377
2005-04-05 07:47:16 51°14.011 2°55.448 16.0261 0.017337 0.097337 -0.882377
2005-04-05 07:47:21 51°14.011 2°55.448 16.0241 0.017233 0.096767 -0.848668
2005-04-05 07:47:25 51°14.011 2°55.448 16.0246 0.017337 0.097339 -0.848668
2005-04-05 07:47:30 51°14.011 2°55.448 16.024 0.017337 0.097339 -0.848668
2005-04-05 07:47:35 51°14.011 2°55.448 16.0169 0.017233 0.09677 -0.882377
2005-04-05 07:47:41 51°14.011 2°55.448 16.0216 0.017337 0.097339 -0.848668
2005-04-05 07:47:46 51°14.011 2°55.448 16.024 0.017233 0.096771 -0.848668
2005-04-05 07:47:51 51°14.011 2°55.448 16.0248 0.017337 0.097343 -0.848668
2005-04-05 07:47:55 51°14.011 2°55.448 16.0128 0.017233 0.096773 -0.848668
2005-04-05 07:48:01 51°14.011 2°55.448 16.0122 0.017233 0.096773 -0.848668
2005-04-05 07:48:04 51°14.011 2°55.448 16.0183 0.017233 0.096773 -0.848668
2005-04-05 07:48:11 51°14.011 2°55.448 16.0386 0.017233 0.096773 -0.848668
2005-04-05 07:48:15 51°14.011 2°55.448 16.0463 0.017233 0.096774 -0.882377
2005-04-05 07:48:21 51°14.011 2°55.448 16.0844 0.017233 0.096774 -0.848668
2005-04-05 07:48:25 51°14.011 2°55.448 16.0475 0.017233 0.096774 -0.848668
2005-04-05 07:48:31 51°14.011 2°55.448 16.0432 0.017233 0.096774 -0.848668
2005-04-05 07:48:35 51°14.011 2°55.448 16.0359 0.017233 0.096776 -0.848668
2005-04-05 07:48:41 51°14.011 2°55.448 16.0385 0.017233 0.096774 -0.882377
2005-04-05 07:48:45 51°14.011 2°55.448 16.0739 0.017337 0.097348 -0.848668
2005-04-05 07:48:51 51°14.011 2°55.448 16.0554 0.017337 0.097348 -0.882377
2005-04-05 07:48:55 51°14.011 2°55.448 16.0345 0.017337 0.097348 -0.848668
2005-04-05 07:49:01 51°14.011 2°55.448 16.0453 0.017337 0.097348 -0.848668
2005-04-05 07:49:05 51°14.011 2°55.448 16.045 0.017337 0.097349 -0.814958
2005-04-05 07:49:11 51°14.011 2°55.448 16.0442 0.017233 0.09678 -0.848668
2005-04-05 07:49:15 51°14.011 2°55.448 16.0449 0.017233 0.096781 -0.814958
2005-04-05 07:49:21 51°14.011 2°55.448 16.0461 0.017233 0.09678 -0.848668
2005-04-05 07:49:25 51°14.011 2°55.448 16.0459 0.017233 0.096781 -0.848668
2005-04-05 07:49:31 51°14.011 2°55.448 16.0481 0.017233 0.096781 -0.848668
2005-04-05 07:49:35 51°14.011 2°55.448 16.0504 0.017233 0.096783 -0.882377
2005-04-05 07:49:40 51°14.011 2°55.448 16.0564 0.017233 0.096783 -0.848668
2005-04-05 07:49:45 51°14.011 2°55.448 16.0587 0.017337 0.097353 -0.882377
2005-04-05 07:49:51 51°14.011 2°55.448 16.0633 0.017233 0.096784 -0.848668
2005-04-05 07:49:55 51°14.011 2°55.448 16.0633 0.017233 0.096787 -0.848668
2005-04-05 07:50:01 51°14.011 2°55.448 16.065 0.017233 0.096787 -0.848668
2005-04-05 07:50:05 51°14.011 2°55.448 16.0591 0.017233 0.096786 -0.848668
2005-04-05 07:50:11 51°14.011 2°55.448 16.043 0.017233 0.096789 -0.848668
2005-04-05 07:50:15 51°14.011 2°55.448 16.0308 0.017233 0.096787 -0.848668
2005-04-05 07:50:21 51°14.011 2°55.448 16.0452 0.017233 0.096789 -0.848668
2005-04-05 07:50:25 51°14.011 2°55.448 16.0648 0.017233 0.096789 -0.848668
2005-04-05 07:50:29 51°14.011 2°55.448 16.0658 0.017233 0.096789 -0.848668
2005-04-05 07:50:35 51°14.011 2°55.448 16.0585 0.017233 0.09679 -0.882377
2005-04-05 07:50:41 51°14.011 2°55.448 16.0594 0.017233 0.09679 -0.848668
2005-04-05 07:50:45 51°14.011 2°55.448 16.0675 0.017233 0.09679 -0.882377
2005-04-05 07:50:50 51°14.011 2°55.448 16.0789 0.017233 0.096791 -0.848668
2005-04-05 07:50:55 51°14.011 2°55.447 16.0793 0.017233 0.096793 -0.848668
2005-04-05 07:51:01 51°14.011 2°55.447 16.0746 0.017233 0.096793 -0.848668
2005-04-05 07:51:05 51°14.011 2°55.447 16.0734 0.017233 0.096791 -0.848668
2005-04-05 07:51:10 51°14.011 2°55.447 16.0693 0.017233 0.096793 -0.848668
2005-04-05 07:51:15 51°14.011 2°55.447 16.0737 0.017233 0.096794 -0.848668
2005-04-05 07:51:21 51°14.011 2°55.448 16.0741 0.017233 0.096794 -0.848668
2005-04-05 07:51:25 51°14.011 2°55.448 16.0839 0.017233 0.096794 -0.848668
2005-04-05 07:51:31 51°14.011 2°55.448 16.0753 0.017233 0.096794 -0.848668
2005-04-05 07:51:35 51°14.011 2°55.448 16.0798 0.017233 0.096796 -0.882377
2005-04-05 07:51:40 51°14.011 2°55.448 16.089 0.017233 0.096796 -0.848668
2005-04-05 07:51:46 51°14.011 2°55.448 16.1121 0.017233 0.096797 -0.882377
2005-04-05 07:51:51 51°14.011 2°55.448 16.1321 0.017233 0.096797 -0.848668
2005-04-05 07:51:55 51°14.011 2°55.448 16.1035 0.017233 0.096799 -0.848668
2005-04-05 07:52:01 51°14.011 2°55.448 16.1048 0.017233 0.096799 -0.848668
2005-04-05 07:52:05 51°14.011 2°55.448 16.0956 0.017233 0.0968 -0.882377
2005-04-05 07:52:11 51°14.011 2°55.448 16.0989 0.017233 0.0968 -0.848668
2005-04-05 07:52:15 51°14.011 2°55.447 16.1001 0.017233 0.096801 -0.848668
2005-04-05 07:52:20 51°14.011 2°55.447 16.1033 0.017233 0.096801 -0.848668
2005-04-05 07:52:25 51°14.011 2°55.447 16.1033 0.017233 0.096801 -0.848668
2005-04-05 07:52:31 51°14.011 2°55.447 16.1011 0.017233 0.096801 -0.848668
2005-04-05 07:52:35 51°14.011 2°55.448 16.103 0.017233 0.096804 -0.848668
2005-04-05 07:52:41 51°14.011 2°55.447 16.107 0.017233 0.096803 -0.882377
2005-04-05 07:52:45 51°14.011 2°55.447 16.1055 0.017233 0.096804 -0.848668
2005-04-05 07:52:50 51°14.011 2°55.447 16.1028 0.017233 0.096806 -0.848668
2005-04-05 07:52:55 51°14.011 2°55.447 16.1114 0.017233 0.096806 -0.848668
2005-04-05 07:53:01 51°14.011 2°55.447 16.1133 0.017233 0.096806 -0.848668
2005-04-05 07:53:05 51°14.011 2°55.447 16.1168 0.017233 0.096807 -0.848668
2005-04-05 07:53:11 51°14.011 2°55.448 16.1208 0.017233 0.096809 -0.848668
2005-04-05 07:53:15 51°14.011 2°55.448 16.1245 0.017233 0.096807 -0.848668
2005-04-05 07:53:21 51°14.011 2°55.448 16.1337 0.017233 0.096809 -0.848668
2005-04-05 07:53:25 51°14.011 2°55.448 16.1457 0.017233 0.09681 -0.848668
2005-04-05 07:53:31 51°14.011 2°55.448 16.1369 0.017233 0.09681 -0.848668
2005-04-05 07:53:35 51°14.011 2°55.447 16.1241 0.017233 0.09681 -0.848668
2005-04-05 07:53:41 51°14.011 2°55.448 16.1209 0.017233 0.096811 -0.882377
2005-04-05 07:53:45 51°14.011 2°55.448 16.1261 0.017233 0.096813 -0.848668
2005-04-05 07:53:51 51°14.011 2°55.447 16.1279 0.017233 0.096813 -0.882377
2005-04-05 07:53:55 51°14.011 2°55.447 16.1333 0.017233 0.096813 -0.882377
2005-04-05 07:54:01 51°14.011 2°55.448 16.1295 0.017233 0.096813 -0.882377
2005-04-05 07:54:04 51°14.011 2°55.448 16.1282 0.017233 0.096814 -0.848668
2005-04-05 07:54:11 51°14.011 2°55.448 16.1361 0.017233 0.096814 -0.848668
2005-04-05 07:54:15 51°14.012 2°55.448 16.1388 0.017233 0.096814 -0.882377
2005-04-05 07:54:20 51°14.012 2°55.448 16.1395 0.017233 0.096816 -0.814958
2005-04-05 07:54:25 51°14.012 2°55.448 16.1418 0.017233 0.096817 -0.882377
2005-04-05 07:54:31 51°14.012 2°55.448 16.1408 0.017233 0.096817 -0.882377
2005-04-05 07:54:35 51°14.012 2°55.448 16.1408 0.017233 0.096817 -0.882377
2005-04-05 07:54:41 51°14.012 2°55.448 16.1477 0.017233 0.096819 -0.882377
2005-04-05 07:54:45 51°14.012 2°55.448 16.1523 0.017233 0.096817 -0.848668
2005-04-05 07:54:51 51°14.012 2°55.448 16.1544 0.017233 0.096817 -0.882377
2005-04-05 07:54:55 51°14.012 2°55.448 16.15 0.017233 0.09682 -0.882377
2005-04-05 07:54:59 51°14.012 2°55.448 16.1368 0.017233 0.09682 -0.882377
2005-04-05 07:55:05 51°14.012 2°55.448 16.1325 0.017233 0.09682 -0.882377
2005-04-05 07:55:10 51°14.012 2°55.448 16.1483 0.017233 0.09682 -0.882377
2005-04-05 07:55:15 51°14.012 2°55.448 16.1562 0.017233 0.09682 -0.848668
2005-04-05 07:55:19 51°14.012 2°55.448 16.1764 0.017233 0.096821 -0.848668
2005-04-05 07:55:25 51°14.012 2°55.448 16.1702 0.017233 0.096821 -0.848668
2005-04-05 07:55:29 51°14.012 2°55.448 16.1567 0.017233 0.096821 -0.848668
2005-04-05 07:55:35 51°14.012 2°55.448 16.1475 0.017233 0.096823 -0.848668
2005-04-05 07:55:41 51°14.012 2°55.448 16.1651 0.017233 0.096824 -0.848668
2005-04-05 07:55:46 51°14.012 2°55.448 16.1837 0.017233 0.096823 -0.882377
2005-04-05 07:55:50 51°14.012 2°55.448 16.1786 0.017233 0.096824 -0.848668
2005-04-05 07:55:55 51°14.012 2°55.448 16.1735 0.017233 0.096824 -0.848668
2005-04-05 07:56:01 51°14.012 2°55.448 16.1763 0.017233 0.096824 -0.848668
2005-04-05 07:56:06 51°14.012 2°55.448 16.1651 0.017233 0.096826 -0.848668
2005-04-05 07:56:11 51°14.012 2°55.448 16.1643 0.017233 0.096826 -0.848668
2005-04-05 07:56:15 51°14.012 2°55.448 16.1655 0.017233 0.096826 -0.882377
2005-04-05 07:56:21 51°14.012 2°55.448 16.1662 0.017233 0.096827 -0.848668
2005-04-05 07:56:25 51°14.012 2°55.448 16.169 0.017233 0.096827 -0.882377
2005-04-05 07:56:31 51°14.013 2°55.448 16.1712 0.017233 0.096827 -0.882377
2005-04-05 07:56:35 51°14.013 2°55.448 16.1716 0.017233 0.096829 -0.848668
2005-04-05 07:56:41 51°14.013 2°55.448 16.1728 0.017233 0.09683 -0.848668
2005-04-05 07:56:45 51°14.013 2°55.448 16.1749 0.017233 0.096831 -0.848668
2005-04-05 07:56:51 51°14.013 2°55.448 16.1849 0.017233 0.096831 -0.882377
2005-04-05 07:56:56 51°14.013 2°55.448 16.1813 0.017233 0.096833 -0.848668
2005-04-05 07:57:00 51°14.013 2°55.448 16.1927 0.017233 0.096833 -0.848668
2005-04-05 07:57:05 51°14.013 2°55.448 16.1978 0.017233 0.096833 -0.848668
2005-04-05 07:57:11 51°14.013 2°55.448 16.1905 0.017233 0.096833 -0.882377
2005-04-05 07:57:15 51°14.013 2°55.448 16.1883 0.017233 0.096834 -0.848668
2005-04-05 07:57:21 51°14.013 2°55.448 16.2018 0.017233 0.096834 -0.882377
2005-04-05 07:57:25 51°14.013 2°55.448 16.2039 0.017233 0.096834 -0.848668
2005-04-05 07:57:30 51°14.013 2°55.448 16.1903 0.017233 0.096834 -0.848668
2005-04-05 07:57:35 51°14.013 2°55.448 16.2003 0.017233 0.096834 -0.848668
2005-04-05 07:57:41 51°14.013 2°55.448 16.1849 0.017233 0.096836 -0.882377
2005-04-05 07:57:45 51°14.013 2°55.448 16.1703 0.017233 0.096836 -0.848668
2005-04-05 07:57:51 51°14.013 2°55.448 16.1978 0.017233 0.096837 -0.848668
2005-04-05 07:57:55 51°14.013 2°55.448 16.2016 0.017233 0.096837 -0.882377
2005-04-05 07:58:01 51°14.013 2°55.448 16.2213 0.017233 0.096837 -0.882377
2005-04-05 07:58:05 51°14.013 2°55.448 16.2336 0.017233 0.096837 -0.882377
2005-04-05 07:58:10 51°14.013 2°55.448 16.209 0.017233 0.096837 -0.848668
2005-04-05 07:58:15 51°14.013 2°55.448 16.2173 0.017233 0.096839 -0.848668
2005-04-05 07:58:21 51°14.013 2°55.448 16.2237 0.017233 0.096837 -0.848668
2005-04-05 07:58:25 51°14.013 2°55.448 16.207 0.017233 0.09684 -0.814958
2005-04-05 07:58:30 51°14.013 2°55.448 16.2294 0.017233 0.09684 -0.814958
2005-04-05 07:58:35 51°14.012 2°55.448 16.2233 0.017233 0.09684 -0.848668
2005-04-05 07:58:40 51°14.012 2°55.448 16.2087 0.017233 0.09684 -0.848668
2005-04-05 07:58:45 51°14.012 2°55.448 16.2101 0.017233 0.096841 -0.848668
2005-04-05 07:58:51 51°14.012 2°55.448 16.212 0.017233 0.096843 -0.882377
2005-04-05 07:58:55 51°14.012 2°55.448 16.2139 0.017233 0.096843 -0.882377
2005-04-05 07:59:01 51°14.012 2°55.448 16.2211 0.017233 0.096843 -0.882377
2005-04-05 07:59:05 51°14.012 2°55.448 16.2254 0.017233 0.096843 -0.848668
2005-04-05 07:59:11 51°14.012 2°55.448 16.2263 0.017233 0.096844 -0.882377
2005-04-05 07:59:15 51°14.012 2°55.448 16.2312 0.017233 0.096846 -0.848668
2005-04-05 07:59:21 51°14.012 2°55.448 16.2305 0.017233 0.096844 -0.848668
2005-04-05 07:59:25 51°14.012 2°55.448 16.2313 0.017233 0.096847 -0.848668
2005-04-05 07:59:31 51°14.012 2°55.448 16.234 0.017233 0.096847 -0.848668
2005-04-05 07:59:36 51°14.012 2°55.448 16.2394 0.017233 0.096847 -0.848668
2005-04-05 07:59:41 51°14.012 2°55.448 16.2439 0.017233 0.096849 -0.848668
2005-04-05 07:59:45 51°14.012 2°55.448 16.2338 0.017233 0.096849 -0.848668
2005-04-05 07:59:48 51°14.012 2°55.448 16.2258 0.017233 0.096849 -0.848668
2005-04-05 07:59:55 51°14.012 2°55.448 16.2357 0.017233 0.09685 -0.848668
2005-04-05 08:00:01 51°14.012 2°55.448 16.2412 0.017233 0.09685 -0.848668
2005-04-05 08:00:06 51°14.012 2°55.448 16.2365 0.017233 0.096849 -0.848668
2005-04-05 08:00:10 51°14.012 2°55.448 16.2275 0.017233 0.096851 -0.848668
2005-04-05 08:00:15 51°14.012 2°55.448 16.2197 0.017233 0.096851 -0.848668
2005-04-05 08:00:21 51°14.012 2°55.448 16.2429 0.017233 0.09685 -0.848668
2005-04-05 08:00:25 51°14.012 2°55.448 16.2419 0.017233 0.096851 -0.882377
2005-04-05 08:00:31 51°14.012 2°55.448 16.2332 0.017233 0.096851 -0.882377
2005-04-05 08:00:35 51°14.012 2°55.448 16.2309 0.017233 0.096851 -0.848668
2005-04-05 08:00:41 51°14.012 2°55.448 16.2294 0.017233 0.096851 -0.848668
2005-04-05 08:00:45 51°14.012 2°55.448 16.2407 0.017233 0.096853 -0.848668
2005-04-05 08:00:51 51°14.012 2°55.448 16.2397 0.017233 0.096853 -0.848668
2005-04-05 08:00:55 51°14.012 2°55.447 16.2416 0.017233 0.096853 -0.848668
2005-04-05 08:00:59 51°14.012 2°55.447 16.2446 0.017233 0.096853 -0.848668
2005-04-05 08:01:05 51°14.012 2°55.447 16.2489 0.017233 0.096854 -0.848668
2005-04-05 08:01:11 51°14.012 2°55.447 16.24 0.017233 0.096854 -0.848668
2005-04-05 08:01:15 51°14.012 2°55.447 16.2444 0.017233 0.096856 -0.848668
2005-04-05 08:01:21 51°14.012 2°55.447 16.2459 0.017233 0.096856 -0.848668
2005-04-05 08:01:25 51°14.012 2°55.447 16.2472 0.017233 0.096856 -0.848668
2005-04-05 08:01:31 51°14.011 2°55.447 16.2495 0.017233 0.096856 -0.848668
2005-04-05 08:01:36 51°14.011 2°55.447 16.2287 0.017233 0.096857 -0.882377
2005-04-05 08:01:41 51°14.011 2°55.447 16.2392 0.017233 0.096856 -0.848668
2005-04-05 08:01:45 51°14.011 2°55.447 16.2508 0.017233 0.096857 -0.882377
2005-04-05 08:01:51 51°14.011 2°55.447 16.2441 0.017233 0.096859 -0.848668
2005-04-05 08:01:55 51°14.011 2°55.447 16.2454 0.017233 0.096857 -0.848668
2005-04-05 08:01:59 51°14.011 2°55.447 16.2467 0.017233 0.096857 -0.848668
2005-04-05 08:02:05 51°14.011 2°55.447 16.2492 0.017233 0.09686 -0.882377
2005-04-05 08:02:11 51°14.011 2°55.447 16.2528 0.017233 0.09686 -0.882377
2005-04-05 08:02:15 51°14.011 2°55.447 16.2565 0.017233 0.09686 -0.848668
2005-04-05 08:02:21 51°14.011 2°55.447 16.2588 0.017233 0.09686 -0.882377
2005-04-05 08:02:25 51°14.011 2°55.447 16.2635 0.017233 0.096861 -0.848668
2005-04-05 08:02:30 51°14.011 2°55.447 16.2499 0.017233 0.096861 -0.848668
2005-04-05 08:02:35 51°14.011 2°55.447 16.2629 0.017233 0.096861 -0.882377
2005-04-05 08:02:40 51°14.011 2°55.447 16.2663 0.017233 0.096861 -0.848668
2005-04-05 08:02:45 51°14.011 2°55.447 16.2625 0.017233 0.096861 -0.848668
2005-04-05 08:02:51 51°14.011 2°55.447 16.2626 0.017233 0.096863 -0.848668
2005-04-05 08:02:55 51°14.011 2°55.447 16.2715 0.017233 0.096863 -0.814958
2005-04-05 08:03:00 51°14.011 2°55.447 16.29 0.017233 0.096863 -0.814958
2005-04-05 08:03:05 51°14.011 2°55.447 16.2874 0.017233 0.096863 -0.882377
2005-04-05 08:03:11 51°14.011 2°55.447 16.2834 0.017233 0.096863 -0.882377
2005-04-05 08:03:15 51°14.011 2°55.447 16.2806 0.017233 0.096863 -0.848668
2005-04-05 08:03:21 51°14.011 2°55.447 16.2818 0.017233 0.096864 -0.848668
2005-04-05 08:03:25 51°14.011 2°55.447 16.2813 0.017233 0.096866 -0.882377
2005-04-05 08:03:31 51°14.011 2°55.447 16.2792 0.017233 0.096866 -0.882377
2005-04-05 08:03:35 51°14.011 2°55.447 16.2765 0.017233 0.096866 -0.882377
2005-04-05 08:03:40 51°14.011 2°55.447 16.2853 0.017233 0.096867 -0.848668
2005-04-05 08:03:45 51°14.011 2°55.447 16.2877 0.017233 0.096867 -0.848668
2005-04-05 08:03:51 51°14.011 2°55.447 16.289 0.017233 0.096867 -0.882377
2005-04-05 08:03:55 51°14.011 2°55.447 16.2885 0.017233 0.096869 -0.848668
2005-04-05 08:04:01 51°14.011 2°55.447 16.2844 0.017233 0.096869 -0.848668
2005-04-05 08:04:05 51°14.011 2°55.447 16.2883 0.017233 0.096867 -0.882377
2005-04-05 08:04:10 51°14.011 2°55.447 16.2856 0.017233 0.09687 -0.882377
2005-04-05 08:04:15 51°14.011 2°55.447 16.2847 0.017233 0.096869 -0.882377
2005-04-05 08:04:21 51°14.011 2°55.447 16.2844 0.017233 0.096869 -0.882377
2005-04-05 08:04:25 51°14.011 2°55.447 16.2774 0.017233 0.09687 -0.882377
2005-04-05 08:04:31 51°14.011 2°55.447 16.2865 0.017233 0.09687 -0.882377
2005-04-05 08:04:35 51°14.011 2°55.447 16.2811 0.017233 0.096869 -0.848668
2005-04-05 08:04:41 51°14.011 2°55.448 16.2871 0.017233 0.096871 -0.848668
2005-04-05 08:04:45 51°14.011 2°55.447 16.2891 0.017233 0.096871 -0.848668
2005-04-05 08:04:47 51°14.011 2°55.448 16.2926 0.017233 0.096871 -0.882377
2005-04-05 08:04:56 51°14.011 2°55.447 16.2939 0.017233 0.096871 -0.882377
2005-04-05 08:04:59 51°14.011 2°55.447 16.2957 0.017233 0.096871 -0.882377
2005-04-05 08:05:04 51°14.011 2°55.447 16.2987 0.017233 0.096873 -0.882377
2005-04-05 08:05:11 51°14.011 2°55.447 16.2989 0.017233 0.096873 -0.848668
2005-04-05 08:05:15 51°14.011 2°55.447 16.2938 0.017233 0.096876 -0.848668
2005-04-05 08:05:21 51°14.011 2°55.447 16.2938 0.017233 0.096874 -0.848668
2005-04-05 08:05:25 51°14.011 2°55.447 16.297 0.017233 0.096874 -0.848668
2005-04-05 08:05:29 51°14.011 2°55.447 16.3014 0.017233 0.096874 -0.848668
2005-04-05 08:05:36 51°14.011 2°55.447 16.3026 0.017233 0.096874 -0.848668
2005-04-05 08:05:39 51°14.011 2°55.447 16.3051 0.017233 0.096876 -0.882377
2005-04-05 08:05:45 51°14.011 2°55.447 16.3043 0.017233 0.096876 -0.848668
2005-04-05 08:05:51 51°14.011 2°55.447 16.303 0.017233 0.096877 -0.882377
2005-04-05 08:05:55 51°14.011 2°55.447 16.3049 0.017233 0.096877 -0.848668
2005-04-05 08:06:00 51°14.011 2°55.447 16.3067 0.017233 0.096877 -0.848668
2005-04-05 08:06:05 51°14.012 2°55.447 16.3204 0.017233 0.096877 -0.848668
2005-04-05 08:06:11 51°14.012 2°55.448 16.3196 0.017233 0.096877 -0.882377
2005-04-05 08:06:15 51°14.012 2°55.448 16.3149 0.017233 0.096877 -0.882377
2005-04-05 08:06:20 51°14.012 2°55.448 16.3187 0.017233 0.096879 -0.882377
2005-04-05 08:06:24 51°14.012 2°55.447 16.3097 0.017233 0.096879 -0.882377
2005-04-05 08:06:30 51°14.012 2°55.447 16.3252 0.017233 0.096879 -0.882377
2005-04-05 08:06:35 51°14.012 2°55.447 16.3231 0.017233 0.096879 -0.848668
2005-04-05 08:06:40 51°14.012 2°55.447 16.333 0.017233 0.096881 -0.882377
2005-04-05 08:06:45 51°14.012 2°55.447 16.3405 0.017233 0.09688 -0.882377
2005-04-05 08:06:48 51°14.012 2°55.447 16.3355 0.017233 0.09688 -0.848668
2005-04-05 08:06:55 51°14.012 2°55.447 16.3349 0.017233 0.096881 -0.848668
2005-04-05 08:06:59 51°14.012 2°55.447 16.3408 0.017233 0.096881 -0.848668
2005-04-05 08:07:04 51°14.012 2°55.447 16.3341 0.017233 0.09688 -0.848668
2005-04-05 08:07:10 51°14.012 2°55.447 16.3336 0.017233 0.096881 -0.882377
2005-04-05 08:07:15 51°14.012 2°55.447 16.326 0.017233 0.096881 -0.848668
2005-04-05 08:07:20 51°14.012 2°55.447 16.3307 0.017233 0.096881 -0.882377
2005-04-05 08:07:24 51°14.012 2°55.447 16.3196 0.017233 0.096883 -0.848668
2005-04-05 08:07:30 51°14.012 2°55.447 16.3257 0.017233 0.096883 -0.848668
2005-04-05 08:07:34 51°14.012 2°55.447 16.3302 0.017233 0.096883 -0.848668
2005-04-05 08:07:40 51°14.012 2°55.447 16.3097 0.017233 0.096884 -0.882377
2005-04-05 08:07:44 51°14.012 2°55.447 16.299 0.017233 0.096883 -0.814958
2005-04-05 08:07:50 51°14.012 2°55.447 16.3033 0.017233 0.096884 -0.848668
2005-04-05 08:07:55 51°14.012 2°55.447 16.3102 0.017233 0.096884 -0.848668
2005-04-05 08:08:00 51°14.012 2°55.448 16.3178 0.017233 0.096884 -0.848668
2005-04-05 08:08:05 51°14.012 2°55.448 16.3191 0.017233 0.096884 -0.848668
2005-04-05 08:08:10 51°14.012 2°55.448 16.3187 0.017233 0.096884 -0.882377
2005-04-05 08:08:16 51°14.012 2°55.448 16.32 0.017233 0.096886 -0.848668
2005-04-05 08:08:20 51°14.012 2°55.447 16.3206 0.017233 0.096886 -0.848668
2005-04-05 08:08:24 51°14.012 2°55.448 16.3287 0.017233 0.096887 -0.882377
2005-04-05 08:08:31 51°14.012 2°55.448 16.3367 0.017233 0.096887 -0.882377
2005-04-05 08:08:35 51°14.012 2°55.448 16.329 0.017233 0.096887 -0.882377
2005-04-05 08:08:40 51°14.012 2°55.447 16.3159 0.017233 0.096887 -0.848668
2005-04-05 08:08:44 51°14.012 2°55.448 16.3367 0.017233 0.096887 -0.814958
2005-04-05 08:08:50 51°14.012 2°55.447 16.3423 0.017233 0.096887 -0.848668
2005-04-05 08:08:55 51°14.012 2°55.448 16.3409 0.017233 0.096887 -0.848668
2005-04-05 08:09:00 51°14.012 2°55.448 16.3456 0.017233 0.096887 -0.848668
2005-04-05 08:09:04 51°14.012 2°55.448 16.3435 0.017233 0.09689 -0.882377
2005-04-05 08:09:10 51°14.012 2°55.448 16.3497 0.017233 0.096889 -0.882377
2005-04-05 08:09:14 51°14.012 2°55.448 16.3368 0.017233 0.096891 -0.848668
2005-04-05 08:09:20 51°14.012 2°55.448 16.3655 0.017233 0.09689 -0.882377
2005-04-05 08:09:26 51°14.012 2°55.448 16.3355 0.017233 0.09689 -0.882377
2005-04-05 08:09:30 51°14.012 2°55.448 16.328 0.017233 0.09689 -0.882377
2005-04-05 08:09:35 51°14.012 2°55.448 16.3361 0.017233 0.09689 -0.848668
2005-04-05 08:09:40 51°14.012 2°55.448 16.3467 0.017233 0.096891 -0.848668
2005-04-05 08:09:46 51°14.012 2°55.448 16.3734 0.017233 0.09689 -0.848668
2005-04-05 08:09:50 51°14.012 2°55.448 16.3702 0.017233 0.096891 -0.848668
2005-04-05 08:09:55 51°14.013 2°55.448 16.3773 0.017233 0.096893 -0.848668
2005-04-05 08:10:00 51°14.013 2°55.448 16.3743 0.017233 0.096893 -0.848668
2005-04-05 08:10:04 51°14.013 2°55.448 16.3698 0.017233 0.096893 -0.848668
2005-04-05 08:10:10 51°14.013 2°55.448 16.3689 0.017233 0.096893 -0.848668
2005-04-05 08:10:15 51°14.013 2°55.448 16.3768 0.017233 0.096894 -0.882377
2005-04-05 08:10:20 51°14.013 2°55.448 16.3762 0.017233 0.096894 -0.882377
2005-04-05 08:10:24 51°14.013 2°55.448 16.3765 0.017233 0.096896 -0.848668
2005-04-05 08:10:30 51°14.013 2°55.448 16.3788 0.017233 0.096896 -0.848668
2005-04-05 08:10:35 51°14.013 2°55.448 16.384 0.017233 0.096896 -0.882377
2005-04-05 08:10:40 51°14.013 2°55.448 16.3895 0.017233 0.096894 -0.882377
2005-04-05 08:10:44 51°14.013 2°55.448 16.3852 0.017233 0.096896 -0.882377
2005-04-05 08:10:50 51°14.013 2°55.448 16.382 0.017233 0.096897 -0.848668
2005-04-05 08:10:55 51°14.013 2°55.448 16.3788 0.017233 0.096897 -0.882377
2005-04-05 08:11:00 51°14.012 2°55.448 16.3755 0.017233 0.096897 -0.882377
2005-04-05 08:11:05 51°14.012 2°55.448 16.3902 0.017233 0.096919 -0.882377
2005-04-05 08:11:10 51°14.012 2°55.448 16.4097 0.017233 0.096972 -0.882377
2005-04-05 08:11:15 51°14.013 2°55.448 16.4811 0.017233 0.097029 -0.848668
2005-04-05 08:11:20 51°14.013 2°55.448 16.4591 0.017233 0.097136 -0.916087
2005-04-05 08:11:26 51°14.013 2°55.448 16.3917 0.017233 0.097088 -0.916087
2005-04-05 08:11:30 51°14.012 2°55.448 16.3562 0.017233 0.097088 -0.916087
2005-04-05 08:11:34 51°14.012 2°55.448 16.3326 0.017233 0.096912 -0.882377
2005-04-05 08:11:40 51°14.012 2°55.448 16.3418 0.017233 0.096883 -0.848668
2005-04-05 08:11:44 51°14.012 2°55.448 16.3821 0.017233 0.096909 -0.848668
2005-04-05 08:11:50 51°14.012 2°55.448 16.4117 0.017233 0.096936 -0.848668
2005-04-05 08:11:55 51°14.012 2°55.448 16.4213 0.017233 0.09696 -0.848668
2005-04-05 08:12:00 51°14.012 2°55.448 16.4094 0.017233 0.09696 -0.848668
2005-04-05 08:12:04 51°14.012 2°55.448 16.4186 0.017233 0.09698 -0.882377
2005-04-05 08:12:10 51°14.012 2°55.448 16.4073 0.017233 0.096995 -0.848668
2005-04-05 08:12:15 51°14.012 2°55.448 16.4174 0.017233 0.097005 -0.882377
2005-04-05 08:12:20 51°14.012 2°55.447 16.4072 0.017233 0.097015 -0.882377
2005-04-05 08:12:25 51°14.012 2°55.447 16.3888 0.017233 0.097023 -0.848668
2005-04-05 08:12:30 51°14.012 2°55.448 16.4266 0.017233 0.097023 -0.848668
2005-04-05 08:12:35 51°14.012 2°55.447 16.388 0.017233 0.097028 -0.848668
2005-04-05 08:12:41 51°14.012 2°55.448 16.4209 0.017233 0.097033 -0.848668
2005-04-05 08:12:45 51°14.012 2°55.447 16.4162 0.017233 0.097036 -0.882377
2005-04-05 08:12:51 51°14.012 2°55.447 16.4195 0.017233 0.097039 -0.848668
2005-04-05 08:12:55 51°14.012 2°55.447 16.4339 0.017233 0.097041 -0.848668
2005-04-05 08:13:00 51°14.012 2°55.447 16.4225 0.017233 0.097041 -0.848668
2005-04-05 08:13:05 51°14.012 2°55.447 16.4235 0.017233 0.097044 -0.848668
2005-04-05 08:13:11 51°14.012 2°55.448 16.4456 0.017233 0.097045 -0.848668
2005-04-05 08:13:15 51°14.012 2°55.448 16.454 0.017233 0.097048 -0.882377
2005-04-05 08:13:21 51°14.012 2°55.448 16.451 0.017233 0.097049 -0.882377
2005-04-05 08:13:26 51°14.012 2°55.448 16.4471 0.017233 0.097049 -0.848668
2005-04-05 08:13:31 51°14.012 2°55.448 16.4456 0.017233 0.097049 -0.848668
2005-04-05 08:13:35 51°14.012 2°55.448 16.439 0.017233 0.097051 -0.848668
2005-04-05 08:13:40 51°14.012 2°55.448 16.4515 0.017233 0.097052 -0.848668
2005-04-05 08:13:46 51°14.012 2°55.448 16.4301 0.017233 0.097052 -0.848668
2005-04-05 08:13:51 51°14.012 2°55.448 16.434 0.017233 0.097054 -0.848668
2005-04-05 08:13:55 51°14.012 2°55.448 16.4351 0.017233 0.097056 -0.882377
2005-04-05 08:14:00 51°14.012 2°55.448 16.4393 0.017233 0.097056 -0.882377
2005-04-05 08:14:05 51°14.012 2°55.448 16.4402 0.017233 0.097056 -0.848668
2005-04-05 08:14:11 51°14.012 2°55.448 16.4447 0.017233 0.097058 -0.848668
2005-04-05 08:14:15 51°14.012 2°55.448 16.4447 0.017233 0.097056 -0.882377
2005-04-05 08:14:20 51°14.012 2°55.447 16.453 0.017233 0.097059 -0.848668
2005-04-05 08:14:26 51°14.012 2°55.447 16.4561 0.017233 0.097061 -0.882377
2005-04-05 08:14:31 51°14.012 2°55.448 16.4532 0.017233 0.097061 -0.882377
2005-04-05 08:14:35 51°14.012 2°55.447 16.459 0.017233 0.097061 -0.882377
2005-04-05 08:14:40 51°14.012 2°55.447 16.4591 0.017233 0.097064 -0.848668
2005-04-05 08:14:45 51°14.012 2°55.447 16.4783 0.017233 0.097072 -0.882377
2005-04-05 08:14:51 51°14.012 2°55.447 16.4681 0.017233 0.09714 -0.848668
2005-04-05 08:14:56 51°14.012 2°55.447 16.4919 0.017233 0.09719 -0.848668
2005-04-05 08:15:00 51°14.012 2°55.447 16.5115 0.017233 0.09719 -0.848668
2005-04-05 08:15:05 51°14.012 2°55.447 16.5052 0.017233 0.097271 -0.882377
2005-04-05 08:15:10 51°14.012 2°55.447 16.4828 0.017233 0.097306 -1.118343
2005-04-05 08:15:15 51°14.012 2°55.447 16.4775 0.017233 0.09715 -0.848668
2005-04-05 08:15:21 51°14.012 2°55.447 16.4442 0.790593 5.655513 -0.848668
2005-04-05 08:15:25 51°14.012 2°55.447 16.4975 0.783068 5.617592 -0.882377
2005-04-05 08:15:31 51°14.012 2°55.447 16.4971 0.783068 5.617592 -0.882377
2005-04-05 08:15:36 51°14.012 2°55.447 16.504 0.576775 4.111897 -0.848668
2005-04-05 08:15:41 51°14.012 2°55.447 16.5358 0.456571 3.222439 -0.882377
2005-04-05 08:15:45 51°14.012 2°55.447 16.5406 0.36336 2.552799 -0.882377
2005-04-05 08:15:51 51°14.012 2°55.447 16.5414 0.303443 2.113673 -0.848668
2005-04-05 08:15:55 51°14.012 2°55.447 16.5417 0.251887 1.744291 -0.882377
2005-04-05 08:16:00 51°14.012 2°55.447 16.5289 0.251887 1.744291 -0.882377
2005-04-05 08:16:05 51°14.011 2°55.447 16.5203 0.253345 1.759567 -0.882377
2005-04-05 08:16:10 51°14.011 2°55.447 16.5406 0.219403 1.512963 -0.882377
2005-04-05 08:16:15 51°14.011 2°55.447 16.5284 0.188386 1.289809 -0.882377
2005-04-05 08:16:21 51°14.011 2°55.447 16.5276 0.175274 1.196045 -0.848668
2005-04-05 08:16:25 51°14.012 2°55.447 16.5356 0.147182 0.995633 -0.848668
2005-04-05 08:16:30 51°14.011 2°55.448 16.5431 0.147182 0.995633 -0.848668
2005-04-05 08:16:35 51°14.011 2°55.448 16.5293 0.136259 0.918172 -0.848668
2005-04-05 08:16:41 51°14.011 2°55.448 16.5327 0.12097 0.810256 -0.882377
2005-04-05 08:16:46 51°14.011 2°55.448 16.541 0.115146 0.768998 -0.848668
2005-04-05 08:16:51 51°14.011 2°55.448 16.5346 0.106619 0.708912 -0.882377
2005-04-05 08:16:55 51°14.011 2°55.448 16.5579 0.102875 0.682121 -0.882377
2005-04-05 08:16:59 51°14.011 2°55.448 16.5674 0.102875 0.682121 -0.882377
2005-04-05 08:17:05 51°14.011 2°55.448 16.5428 0.097052 0.640886 -0.882377
2005-04-05 08:17:11 51°14.011 2°55.448 16.5327 0.091334 0.600558 -0.848668
2005-04-05 08:17:15 51°14.011 2°55.448 16.5349 0.09019 0.591951 -0.848668
2005-04-05 08:17:19 51°14.011 2°55.448 16.5347 0.085615 0.559882 -0.848668
2005-04-05 08:17:25 51°14.011 2°55.448 16.5323 0.082497 0.537639 -0.848668
2005-04-05 08:17:31 51°14.011 2°55.448 16.5285 0.082497 0.537639 -0.848668
2005-04-05 08:17:35 51°14.011 2°55.448 16.5283 0.080521 0.523329 -0.848668
2005-04-05 08:17:40 51°14.011 2°55.448 16.5366 0.079378 0.514936 -0.882377
2005-04-05 08:17:45 51°14.011 2°55.448 16.5386 0.077091 0.498733 -0.882377
2005-04-05 08:17:50 51°14.011 2°55.448 16.5368 0.076987 0.497486 -0.848668
2005-04-05 08:17:56 51°14.011 2°55.448 16.5407 0.075532 0.486827 -0.848668
2005-04-05 08:18:01 51°14.011 2°55.448 16.5423 0.075532 0.486827 -0.848668
2005-04-05 08:18:06 51°14.011 2°55.448 16.5259 0.074388 0.47875 -0.848668
2005-04-05 08:18:10 51°14.01 2°55.448 16.547 0.073037 0.469137 -0.848668
2005-04-05 08:18:15 51°14.011 2°55.448 16.5401 0.071997 0.4618 -0.848668
2005-04-05 08:18:19 51°14.01 2°55.448 16.5401 0.071685 0.459094 -0.848668
2005-04-05 08:18:25 51°14.011 2°55.448 16.5422 0.070646 0.451844 -0.848668
2005-04-05 08:18:30 51°14.011 2°55.448 16.5435 0.070646 0.451844 -0.848668
2005-04-05 08:18:35 51°14.01 2°55.448 16.5433 0.069814 0.44561 -0.882377
2005-04-05 08:18:41 51°14.011 2°55.448 16.56 0.069087 0.440356 -0.848668
2005-04-05 08:18:45 51°14.011 2°55.448 16.5521 0.068775 0.437355 -0.848668
2005-04-05 08:18:51 51°14.011 2°55.448 16.5479 0.068255 0.433628 -0.882377
2005-04-05 08:18:55 51°14.011 2°55.448 16.5388 0.068047 0.431361 -0.882377
2005-04-05 08:19:00 51°14.011 2°55.448 16.5472 0.068047 0.431361 -0.882377
2005-04-05 08:19:05 51°14.011 2°55.448 16.5589 0.067631 0.428124 -0.882377
2005-04-05 08:19:11 51°14.011 2°55.448 16.5509 0.067631 0.427623 -0.848668
2005-04-05 08:19:15 51°14.011 2°55.448 16.5852 0.067008 0.423064 -0.848668
2005-04-05 08:19:19 51°14.011 2°55.448 16.5569 0.067112 0.423135 -0.848668
2005-04-05 08:19:25 51°14.011 2°55.448 16.5366 0.066904 0.421505 -0.848668
2005-04-05 08:19:31 51°14.011 2°55.448 16.5603 0.066904 0.421505 -0.848668
2005-04-05 08:19:35 51°14.011 2°55.448 16.5626 0.066384 0.41726 -0.848668
2005-04-05 08:19:41 51°14.011 2°55.448 16.5279 0.066488 0.416663 -0.848668
2005-04-05 08:19:45 51°14.011 2°55.448 16.5852 0.066176 0.413601 -0.882377
2005-04-05 08:19:51 51°14.011 2°55.448 16.5606 0.066072 0.411844 -0.848668
2005-04-05 08:19:55 51°14.011 2°55.448 16.6003 0.065864 0.40853 -0.848668
2005-04-05 08:20:01 51°14.01 2°55.448 16.5621 0.065864 0.40853 -0.848668
2005-04-05 08:20:05 51°14.011 2°55.448 16.5766 0.065968 0.408327 -0.882377
2005-04-05 08:20:11 51°14.011 2°55.448 16.5918 0.066072 0.407102 -0.882377
2005-04-05 08:20:15 51°14.011 2°55.448 16.591 0.066072 0.405472 -0.848668
2005-04-05 08:20:20 51°14.011 2°55.448 16.5986 0.065968 0.403494 -0.882377
2005-04-05 08:20:25 51°14.011 2°55.448 16.5583 0.066176 0.40242 -0.848668
2005-04-05 08:20:31 51°14.011 2°55.448 16.5737 0.066176 0.40242 -0.848668
2005-04-05 08:20:35 51°14.011 2°55.448 16.5807 0.066176 0.401556 -0.882377
2005-04-05 08:20:41 51°14.011 2°55.448 16.5734 0.06628 0.400108 -0.848668
2005-04-05 08:20:45 51°14.011 2°55.448 16.5673 0.066384 0.399415 -0.848668
2005-04-05 08:20:51 51°14.011 2°55.448 16.5853 0.066592 0.39957 -0.848668
2005-04-05 08:20:55 51°14.011 2°55.448 16.5638 0.066695 0.399066 -0.882377
2005-04-05 08:21:01 51°14.011 2°55.448 16.5725 0.066695 0.399066 -0.882377
2005-04-05 08:21:05 51°14.011 2°55.448 16.5988 0.066903 0.399238 -0.848668
2005-04-05 08:21:11 51°14.011 2°55.448 16.6011 0.067111 0.400008 -0.882377
2005-04-05 08:21:15 51°14.011 2°55.448 16.6028 0.067215 0.399826 -0.848668
2005-04-05 08:21:19 51°14.011 2°55.448 16.5881 0.067215 0.399653 -0.848668
2005-04-05 08:21:26 51°14.011 2°55.448 16.5596 0.067319 0.400098 -0.848668
2005-04-05 08:21:31 51°14.011 2°55.448 16.5665 0.067319 0.400098 -0.848668
2005-04-05 08:21:35 51°14.011 2°55.448 16.5171 0.067319 0.400134 -0.848668
2005-04-05 08:21:41 51°14.011 2°55.448 16.5449 0.067423 0.400896 -0.848668
2005-04-05 08:21:45 51°14.011 2°55.448 16.5346 0.067527 0.401876 -0.882377
2005-04-05 08:21:51 51°14.011 2°55.448 16.5535 0.067527 0.402225 -0.882377
2005-04-05 08:21:55 51°14.011 2°55.448 16.5291 0.067319 0.401204 -0.848668
2005-04-05 08:22:00 51°14.011 2°55.448 16.5552 0.067319 0.401204 -0.848668
2005-04-05 08:22:06 51°14.011 2°55.448 16.5508 0.067319 0.401741 -0.848668
2005-04-05 08:22:11 51°14.011 2°55.448 16.5283 0.067111 0.400863 -0.882377
2005-04-05 08:22:15 51°14.011 2°55.448 16.5575 0.067007 0.40086 -0.848668
2005-04-05 08:22:19 51°14.011 2°55.448 16.5555 0.067007 0.401523 -0.848668
2005-04-05 08:22:26 51°14.011 2°55.448 16.5613 0.067007 0.402263 -0.848668
2005-04-05 08:22:30 51°14.011 2°55.448 16.5587 0.067007 0.402263 -0.848668
2005-04-05 08:22:35 51°14.011 2°55.448 16.5403 0.066799 0.401374 -0.848668
2005-04-05 08:22:41 51°14.011 2°55.448 16.542 0.066799 0.40205 -0.882377
2005-04-05 08:22:45 51°14.011 2°55.448 16.553 0.066799 0.402928 -0.882377
2005-04-05 08:22:49 51°14.011 2°55.448 16.5587 0.066488 0.401637 -0.848668
2005-04-05 08:22:56 51°14.011 2°55.448 16.5681 0.06628 0.401267 -0.848668
2005-04-05 08:23:01 51°14.011 2°55.448 16.5632 0.06628 0.401267 -0.848668
2005-04-05 08:23:04 51°14.011 2°55.448 16.5649 0.066176 0.401467 -0.882377
2005-04-05 08:23:11 51°14.011 2°55.448 16.5572 0.066072 0.402363 -0.848668
2005-04-05 08:23:15 51°14.011 2°55.448 16.5653 0.065864 0.401052 -0.848668
2005-04-05 08:23:19 51°14.011 2°55.448 16.5608 0.06576 0.401689 -0.848668
2005-04-05 08:23:25 51°14.011 2°55.448 16.5514 0.065656 0.401955 -0.848668
2005-04-05 08:23:31 51°14.011 2°55.448 16.5434 0.065656 0.401955 -0.848668
2005-04-05 08:23:35 51°14.011 2°55.448 16.5658 0.065552 0.401988 -0.882377
2005-04-05 08:23:41 51°14.011 2°55.448 16.5646 0.065344 0.401474 -0.882377
2005-04-05 08:23:45 51°14.011 2°55.448 16.5907 0.065241 0.401364 -0.848668
2005-04-05 08:23:51 51°14.011 2°55.448 16.563 0.065033 0.401219 -0.882377
2005-04-05 08:23:55 51°14.011 2°55.448 16.554 0.064825 0.401493 -0.882377
2005-04-05 08:24:01 51°14.011 2°55.448 16.5674 0.064825 0.401493 -0.882377
2005-04-05 08:24:05 51°14.011 2°55.448 16.5807 0.064617 0.40086 -0.848668
2005-04-05 08:24:11 51°14.011 2°55.448 16.5804 0.064513 0.401831 -0.882377
2005-04-05 08:24:15 51°14.011 2°55.448 16.6016 0.064409 0.401607 -0.848668
2005-04-05 08:24:21 51°14.011 2°55.448 16.5869 0.064097 0.400892 -0.848668
2005-04-05 08:24:25 51°14.011 2°55.448 16.5848 0.063786 0.399626 -0.848668
2005-04-05 08:24:31 51°14.011 2°55.448 16.5718 0.063786 0.399626 -0.848668